| time (UTC) | temp F | wind direction | speed knots | gust knots | rain 1hr in | rain 24hr in | rain mn in | humidity % | barometer mb |
| 20260503215403 | 67 | 265 | 0.0 | 5.2 | 0.00 | 0.00 | 0.00 | 57 | 1016.9 |
| 20260503215305 | 67 | 265 | 0.0 | 5.2 | 0.00 | 0.00 | 0.00 | 54 | 1016.9 |
| 20260503215203 | 67 | 265 | 0.0 | 5.2 | 0.00 | 0.00 | 0.00 | 54 | 1016.9 |
| 20260503215103 | 67 | 40 | 0.9 | 5.2 | 0.00 | 0.00 | 0.00 | 54 | 1016.9 |
| 20260503215006 | 67 | 40 | 2.6 | 5.2 | 0.00 | 0.00 | 0.00 | 53 | 1016.9 |
| 20260503214904 | 67 | 36 | 2.6 | 5.2 | 0.00 | 0.00 | 0.00 | 53 | 1017.0 |
| 20260503214803 | 67 | 40 | 1.7 | 3.5 | 0.00 | 0.00 | 0.00 | 53 | 1016.9 |
| 20260503214703 | 67 | 17 | 0.9 | 3.5 | 0.00 | 0.00 | 0.00 | 52 | 1016.9 |
| 20260503214405 | 67 | 14 | 1.7 | 3.5 | 0.00 | 0.00 | 0.00 | 54 | 1016.9 |
| 20260503214304 | 67 | 17 | 1.7 | 3.5 | 0.00 | 0.00 | 0.00 | 54 | 1016.9 |
| 20260503214204 | 67 | 19 | 1.7 | 3.5 | 0.00 | 0.00 | 0.00 | 54 | 1016.9 |
| 20260503214103 | 67 | 19 | 1.7 | 3.5 | 0.00 | 0.00 | 0.00 | 53 | 1017.0 |
| 20260503214005 | 67 | 17 | 1.7 | 3.5 | 0.00 | 0.00 | 0.00 | 53 | 1017.0 |
| 20260503213903 | 67 | 30 | 0.9 | 2.6 | 0.00 | 0.00 | 0.00 | 53 | 1016.9 |
| 20260503213804 | 67 | 30 | 0.9 | 2.6 | 0.00 | 0.00 | 0.00 | 54 | 1017.0 |
| 20260503213704 | 67 | 30 | 0.9 | 2.6 | 0.00 | 0.00 | 0.00 | 54 | 1016.9 |
| 20260503213603 | 67 | 32 | 0.9 | 2.6 | 0.00 | 0.00 | 0.00 | 54 | 1017.0 |
| 20260503213505 | 67 | 32 | 1.7 | 2.6 | 0.00 | 0.00 | 0.00 | 53 | 1016.9 |
| 20260503213403 | 67 | 32 | 0.9 | 2.6 | 0.00 | 0.00 | 0.00 | 53 | 1017.0 |
| 20260503213303 | 67 | 248 | 1.7 | 2.6 | 0.00 | 0.00 | 0.00 | 53 | 1017.0 |
| 20260503213203 | 67 | 248 | 1.7 | 2.6 | 0.00 | 0.00 | 0.00 | 54 | 1016.9 |
| 20260503212904 | 68 | 355 | 0.9 | 1.7 | 0.00 | 0.00 | 0.00 | 54 | 1017.0 |
| 20260503212803 | 68 | 297 | 0.9 | 1.7 | 0.00 | 0.00 | 0.00 | 54 | 1017.1 |
| 20260503212704 | 68 | 40 | 0.9 | 1.7 | 0.00 | 0.00 | 0.00 | 55 | 1017.1 |
| 20260503212403 | 68 | 14 | 0.9 | 2.6 | 0.00 | 0.00 | 0.00 | 55 | 1017.0 |
| 20260503212305 | 68 | 300 | 0.9 | 2.6 | 0.00 | 0.00 | 0.00 | 55 | 1017.1 |
| 20260503212203 | 68 | 329 | 0.9 | 2.6 | 0.00 | 0.00 | 0.00 | 56 | 1017.0 |
| 20260503212102 | 68 | 360 | 0.9 | 2.6 | 0.00 | 0.00 | 0.00 | 56 | 1017.0 |
| 20260503212005 | 68 | 324 | 0.9 | 2.6 | 0.00 | 0.00 | 0.00 | 56 | 1017.1 |
| 20260503211803 | 68 | 317 | 0.9 | 2.6 | 0.00 | 0.00 | 0.00 | 54 | 1017.0 |
| 20260503211703 | 68 | 15 | 1.7 | 2.6 | 0.00 | 0.00 | 0.00 | 53 | 1017.1 |
| 20260503211603 | 68 | 13 | 0.9 | 2.6 | 0.00 | 0.00 | 0.00 | 53 | 1017.0 |
| 20260503211506 | 68 | 334 | 0.9 | 2.6 | 0.00 | 0.00 | 0.00 | 53 | 1017.1 |
| 20260503211404 | 68 | 28 | 0.9 | 2.6 | 0.00 | 0.00 | 0.00 | 54 | 1017.1 |
| 20260503211303 | 68 | 5 | 0.9 | 2.6 | 0.00 | 0.00 | 0.00 | 53 | 1017.1 |
| 20260503211204 | 68 | 360 | 0.9 | 2.6 | 0.00 | 0.00 | 0.00 | 55 | 1017.1 |
| 20260503211103 | 68 | 329 | 0.9 | 2.6 | 0.00 | 0.00 | 0.00 | 56 | 1017.1 |
| 20260503211005 | 68 | 47 | 0.9 | 2.6 | 0.00 | 0.00 | 0.00 | 54 | 1017.1 |
| 20260503210903 | 68 | 11 | 0.9 | 2.6 | 0.00 | 0.00 | 0.00 | 55 | 1017.1 |
| 20260503210804 | 68 | 11 | 0.9 | 5.2 | 0.00 | 0.00 | 0.00 | 56 | 1017.1 |
| 20260503210704 | 68 | 80 | 0.9 | 5.2 | 0.00 | 0.00 | 0.00 | 56 | 1017.1 |
| 20260503210603 | 67 | 86 | 0.9 | 5.2 | 0.00 | 0.00 | 0.00 | 56 | 1017.1 |
| 20260503210505 | 67 | 101 | 0.9 | 5.2 | 0.00 | 0.00 | 0.00 | 55 | 1017.1 |
| 20260503210203 | 67 | 100 | 0.9 | 5.2 | 0.00 | 0.00 | 0.00 | 54 | 1017.2 |
| 20260503210104 | 67 | 49 | 1.7 | 5.2 | 0.00 | 0.00 | 0.00 | 53 | 1017.1 |
| 20260503205904 | 67 | 43 | 1.7 | 5.2 | 0.00 | 0.00 | 0.00 | 54 | 1017.2 |
| 20260503205603 | 67 | 36 | 0.9 | 2.6 | 0.00 | 0.00 | 0.00 | 53 | 1017.3 |
| 20260503205506 | 67 | 12 | 0.9 | 2.6 | 0.00 | 0.00 | 0.00 | 53 | 1017.3 |
| 20260503205404 | 67 | 338 | 0.9 | 2.6 | 0.00 | 0.00 | 0.00 | 53 | 1017.3 |
| 20260503205305 | 67 | 33 | 0.9 | 2.6 | 0.00 | 0.00 | 0.00 | 54 | 1017.3 |
| 20260503205203 | 67 | 342 | 0.9 | 2.6 | 0.00 | 0.00 | 0.00 | 52 | 1017.3 |
| 20260503205103 | 67 | 332 | 1.7 | 2.6 | 0.00 | 0.00 | 0.00 | 53 | 1017.4 |
| 20260503205006 | 67 | 355 | 1.7 | 2.6 | 0.00 | 0.00 | 0.00 | 53 | 1017.4 |
| 20260503204903 | 67 | 338 | 1.7 | 2.6 | 0.00 | 0.00 | 0.00 | 54 | 1017.4 |
| 20260503204804 | 67 | 5 | 1.7 | 2.6 | 0.00 | 0.00 | 0.00 | 54 | 1017.4 |
| 20260503204704 | 67 | 15 | 0.9 | 3.5 | 0.00 | 0.00 | 0.00 | 55 | 1017.4 |
| 20260503204604 | 68 | 16 | 1.7 | 4.3 | 0.00 | 0.00 | 0.00 | 55 | 1017.4 |
| 20260503204505 | 67 | 5 | 1.7 | 4.3 | 0.00 | 0.00 | 0.00 | 54 | 1017.4 |
| 20260503204404 | 68 | 336 | 1.7 | 4.3 | 0.00 | 0.00 | 0.00 | 53 | 1017.4 |
| 20260503204303 | 68 | 336 | 1.7 | 7.0 | 0.00 | 0.00 | 0.00 | 53 | 1017.4 |
| 20260503204203 | 68 | 355 | 1.7 | 7.0 | 0.00 | 0.00 | 0.00 | 53 | 1017.3 |
| 20260503204103 | 68 | 355 | 1.7 | 7.0 | 0.00 | 0.00 | 0.00 | 54 | 1017.4 |
| 20260503204005 | 68 | 5 | 1.7 | 7.0 | 0.00 | 0.00 | 0.00 | 53 | 1017.3 |
| 20260503203904 | 68 | 5 | 2.6 | 7.0 | 0.00 | 0.00 | 0.00 | 52 | 1017.4 |
| 20260503203703 | 68 | 54 | 1.7 | 7.0 | 0.00 | 0.00 | 0.00 | 52 | 1017.3 |
| 20260503203604 | 68 | 26 | 3.5 | 7.0 | 0.00 | 0.00 | 0.00 | 52 | 1017.4 |
| 20260503203505 | 68 | 92 | 2.6 | 7.0 | 0.00 | 0.00 | 0.00 | 53 | 1017.4 |
| 20260503203404 | 68 | 94 | 0.9 | 2.6 | 0.00 | 0.00 | 0.00 | 53 | 1017.4 |
| 20260503203304 | 68 | 69 | 0.0 | 2.6 | 0.00 | 0.00 | 0.00 | 53 | 1017.4 |
| 20260503203204 | 68 | 227 | 0.0 | 2.6 | 0.00 | 0.00 | 0.00 | 52 | 1017.5 |
| 20260503203103 | 68 | 67 | 0.9 | 3.5 | 0.00 | 0.00 | 0.00 | 53 | 1017.4 |
| 20260503203006 | 68 | 335 | 0.9 | 3.5 | 0.00 | 0.00 | 0.00 | 54 | 1017.5 |
| 20260503202905 | 68 | 14 | 0.9 | 3.5 | 0.00 | 0.00 | 0.00 | 56 | 1017.6 |
| 20260503202804 | 68 | 333 | 0.9 | 3.5 | 0.00 | 0.00 | 0.00 | 55 | 1017.5 |
| 20260503202703 | 68 | 275 | 1.7 | 3.5 | 0.00 | 0.00 | 0.00 | 53 | 1017.6 |
| 20260503202607 | 68 | 350 | 1.7 | 3.5 | 0.00 | 0.00 | 0.00 | 52 | 1017.5 |
| 20260503202505 | 68 | 11 | 1.7 | 3.5 | 0.00 | 0.00 | 0.00 | 52 | 1017.5 |
| 20260503202304 | 68 | 78 | 1.7 | 3.5 | 0.00 | 0.00 | 0.00 | 51 | 1017.6 |
| 20260503202205 | 68 | 355 | 1.7 | 3.5 | 0.00 | 0.00 | 0.00 | 51 | 1017.5 |
| 20260503202103 | 68 | 78 | 1.7 | 3.5 | 0.00 | 0.00 | 0.00 | 51 | 1017.5 |
| 20260503202005 | 68 | 13 | 1.7 | 3.5 | 0.00 | 0.00 | 0.00 | 51 | 1017.5 |
| 20260503201902 | 68 | 349 | 0.9 | 3.5 | 0.00 | 0.00 | 0.00 | 52 | 1017.5 |
| 20260503201803 | 68 | 360 | 0.9 | 4.3 | 0.00 | 0.00 | 0.00 | 53 | 1017.5 |
| 20260503201603 | 68 | 101 | 1.7 | 4.3 | 0.00 | 0.00 | 0.00 | 52 | 1017.6 |
| 20260503201505 | 68 | 77 | 0.9 | 4.3 | 0.00 | 0.00 | 0.00 | 53 | 1017.5 |
| 20260503201305 | 68 | 9 | 0.9 | 4.3 | 0.00 | 0.00 | 0.00 | 52 | 1017.6 |
| 20260503201204 | 68 | 333 | 0.9 | 4.3 | 0.00 | 0.00 | 0.00 | 52 | 1017.6 |
| 20260503201103 | 68 | 109 | 1.7 | 4.3 | 0.00 | 0.00 | 0.00 | 51 | 1017.6 |
| 20260503201009 | 68 | 103 | 1.7 | 4.3 | 0.00 | 0.00 | 0.00 | 51 | 1017.7 |
| 20260503200903 | 68 | 38 | 1.7 | 4.3 | 0.00 | 0.00 | 0.00 | 50 | 1017.6 |
| 20260503200803 | 68 | 28 | 0.9 | 4.3 | 0.00 | 0.00 | 0.00 | 51 | 1017.7 |
| 20260503200704 | 68 | 248 | 0.9 | 4.3 | 0.00 | 0.00 | 0.00 | 52 | 1017.7 |
| 20260503200603 | 68 | 346 | 1.7 | 4.3 | 0.00 | 0.00 | 0.00 | 51 | 1017.7 |
| 20260503200505 | 68 | 338 | 1.7 | 4.3 | 0.00 | 0.00 | 0.00 | 51 | 1017.6 |
| 20260503200403 | 68 | 355 | 1.7 | 6.1 | 0.00 | 0.00 | 0.00 | 52 | 1017.7 |
| 20260503200302 | 68 | 332 | 1.7 | 6.1 | 0.00 | 0.00 | 0.00 | 52 | 1017.7 |
| 20260503200203 | 68 | 5 | 1.7 | 6.1 | 0.00 | 0.00 | 0.00 | 50 | 1017.7 |
| 20260503200007 | 68 | 5 | 1.7 | 6.1 | 0.00 | 0.00 | 0.00 | 53 | 1017.7 |
| 20260503195803 | 68 | 32 | 1.7 | 6.1 | 0.00 | 0.02 | 0.00 | 52 | 1017.7 |
| 20260503195702 | 68 | 50 | 1.7 | 6.1 | 0.00 | 0.02 | 0.00 | 52 | 1017.7 |
| 20260503195603 | 68 | 5 | 2.6 | 6.1 | 0.00 | 0.02 | 0.00 | 51 | 1017.7 |
| 20260503195506 | 68 | 52 | 1.7 | 5.2 | 0.00 | 0.02 | 0.00 | 51 | 1017.7 |
| 20260503195403 | 68 | 336 | 2.6 | 5.2 | 0.00 | 0.02 | 0.00 | 53 | 1017.7 |
| 20260503195305 | 68 | 98 | 1.7 | 5.2 | 0.00 | 0.02 | 0.00 | 52 | 1017.8 |
| 20260503195203 | 68 | 12 | 0.9 | 5.2 | 0.00 | 0.02 | 0.00 | 53 | 1017.8 |
| 20260503195103 | 68 | 53 | 0.9 | 5.2 | 0.00 | 0.02 | 0.00 | 51 | 1017.8 |
| 20260503195006 | 68 | 248 | 1.7 | 5.2 | 0.00 | 0.02 | 0.00 | 51 | 1017.8 |
| 20260503194906 | 68 | 271 | 2.6 | 5.2 | 0.00 | 0.02 | 0.00 | 51 | 1017.8 |
| 20260503194804 | 68 | 355 | 2.6 | 5.2 | 0.00 | 0.02 | 0.00 | 51 | 1017.9 |
| 20260503194704 | 68 | 350 | 2.6 | 5.2 | 0.00 | 0.02 | 0.00 | 51 | 1017.9 |
| 20260503194603 | 68 | 348 | 1.7 | 5.2 | 0.00 | 0.02 | 0.00 | 51 | 1017.9 |
| 20260503194506 | 68 | 29 | 1.7 | 5.2 | 0.00 | 0.02 | 0.00 | 51 | 1017.9 |
| 20260503194403 | 68 | 14 | 1.7 | 5.2 | 0.00 | 0.02 | 0.00 | 51 | 1017.9 |
| 20260503194303 | 68 | 5 | 1.7 | 5.2 | 0.00 | 0.02 | 0.00 | 50 | 1018.0 |
| 20260503194203 | 68 | 69 | 2.6 | 5.2 | 0.00 | 0.02 | 0.00 | 50 | 1018.0 |
| 20260503194103 | 68 | 34 | 3.5 | 5.2 | 0.00 | 0.02 | 0.00 | 49 | 1017.9 |
| 20260503194005 | 68 | 17 | 3.5 | 5.2 | 0.00 | 0.02 | 0.00 | 50 | 1018.0 |
| 20260503193903 | 68 | 360 | 2.6 | 4.3 | 0.00 | 0.02 | 0.00 | 52 | 1018.0 |
| 20260503193803 | 68 | 350 | 1.7 | 4.3 | 0.00 | 0.02 | 0.00 | 51 | 1018.1 |
| 20260503193703 | 68 | 349 | 1.7 | 7.0 | 0.00 | 0.02 | 0.00 | 51 | 1018.0 |
| 20260503193604 | 68 | 350 | 2.6 | 7.0 | 0.00 | 0.02 | 0.00 | 52 | 1018.1 |
| 20260503193504 | 68 | 343 | 1.7 | 7.0 | 0.00 | 0.02 | 0.00 | 51 | 1018.1 |
| 20260503193404 | 68 | 15 | 1.7 | 7.0 | 0.00 | 0.02 | 0.00 | 51 | 1018.1 |
| 20260503193304 | 68 | 335 | 0.9 | 7.0 | 0.00 | 0.02 | 0.00 | 53 | 1018.0 |
| 20260503193203 | 68 | 336 | 0.9 | 7.0 | 0.00 | 0.02 | 0.00 | 52 | 1018.0 |
| 20260503193103 | 68 | 351 | 1.7 | 7.0 | 0.00 | 0.02 | 0.00 | 52 | 1018.1 |
| 20260503193005 | 68 | 355 | 2.6 | 7.0 | 0.00 | 0.02 | 0.00 | 51 | 1018.2 |
| 20260503192904 | 68 | 355 | 2.6 | 7.0 | 0.00 | 0.02 | 0.00 | 52 | 1018.1 |
| 20260503192803 | 68 | 350 | 2.6 | 5.2 | 0.00 | 0.02 | 0.00 | 50 | 1018.1 |
| 20260503192705 | 68 | 22 | 2.6 | 5.2 | 0.00 | 0.02 | 0.00 | 51 | 1018.2 |
| 20260503192603 | 68 | 355 | 2.6 | 5.2 | 0.00 | 0.02 | 0.00 | 51 | 1018.2 |
| 20260503192506 | 68 | 10 | 3.5 | 5.2 | 0.00 | 0.02 | 0.00 | 50 | 1018.2 |
| 20260503192403 | 68 | 360 | 3.5 | 5.2 | 0.00 | 0.02 | 0.00 | 53 | 1018.3 |
| 20260503192305 | 68 | 346 | 2.6 | 5.2 | 0.00 | 0.02 | 0.00 | 51 | 1018.3 |
| 20260503192204 | 68 | 33 | 1.7 | 5.2 | 0.00 | 0.02 | 0.00 | 51 | 1018.3 |
| 20260503191903 | 68 | 59 | 1.7 | 4.3 | 0.00 | 0.02 | 0.00 | 50 | 1018.5 |
| 20260503191803 | 68 | 323 | 1.7 | 4.3 | 0.00 | 0.02 | 0.00 | 52 | 1018.4 |
| 20260503191703 | 68 | 5 | 1.7 | 4.3 | 0.00 | 0.02 | 0.00 | 51 | 1018.5 |
| 20260503191604 | 68 | 355 | 1.7 | 4.3 | 0.00 | 0.02 | 0.00 | 52 | 1018.6 |
| 20260503191505 | 68 | 329 | 1.7 | 4.3 | 0.00 | 0.02 | 0.00 | 51 | 1018.5 |
| 20260503191203 | 67 | 15 | 1.7 | 5.2 | 0.00 | 0.02 | 0.00 | 52 | 1018.6 |
| 20260503191105 | 67 | 22 | 0.9 | 7.0 | 0.00 | 0.02 | 0.00 | 52 | 1018.6 |
| 20260503191005 | 67 | 13 | 0.9 | 7.0 | 0.00 | 0.02 | 0.00 | 51 | 1018.5 |
| 20260503190905 | 67 | 47 | 2.6 | 7.0 | 0.00 | 0.02 | 0.00 | 50 | 1018.6 |
| 20260503190803 | 67 | 71 | 2.6 | 7.0 | 0.00 | 0.02 | 0.00 | 50 | 1018.6 |
| 20260503190704 | 67 | 346 | 2.6 | 7.0 | 0.00 | 0.02 | 0.00 | 50 | 1018.6 |
| 20260503190604 | 68 | 5 | 2.6 | 7.0 | 0.00 | 0.02 | 0.00 | 49 | 1018.6 |
| 20260503190505 | 68 | 5 | 3.5 | 7.0 | 0.00 | 0.02 | 0.00 | 49 | 1018.6 |
| 20260503190303 | 68 | 355 | 2.6 | 7.0 | 0.00 | 0.02 | 0.00 | 52 | 1018.6 |
| 20260503190203 | 68 | 350 | 2.6 | 7.0 | 0.00 | 0.02 | 0.00 | 50 | 1018.6 |
| 20260503190104 | 68 | 36 | 2.6 | 7.0 | 0.00 | 0.02 | 0.00 | 51 | 1018.6 |
| 20260503190007 | 68 | 326 | 2.6 | 7.0 | 0.00 | 0.02 | 0.00 | 51 | 1018.6 |
| 20260503185903 | 68 | 13 | 3.5 | 7.0 | 0.00 | 0.02 | 0.00 | 49 | 1018.6 |
| 20260503185803 | 68 | 5 | 2.6 | 7.0 | 0.00 | 0.02 | 0.00 | 51 | 1018.6 |
| 20260503185704 | 68 | 29 | 1.7 | 5.2 | 0.00 | 0.02 | 0.00 | 50 | 1018.6 |
| 20260503185603 | 68 | 360 | 1.7 | 5.2 | 0.00 | 0.02 | 0.00 | 50 | 1018.7 |
| 20260503185505 | 68 | 340 | 1.7 | 5.2 | 0.00 | 0.02 | 0.00 | 51 | 1018.7 |
| 20260503185404 | 68 | 240 | 2.6 | 5.2 | 0.00 | 0.02 | 0.00 | 52 | 1018.8 |
| 20260503185305 | 68 | 316 | 3.5 | 5.2 | 0.00 | 0.02 | 0.00 | 50 | 1018.8 |
| 20260503185203 | 68 | 5 | 3.5 | 5.2 | 0.00 | 0.02 | 0.00 | 52 | 1018.8 |
| 20260503185103 | 68 | 355 | 2.6 | 5.2 | 0.00 | 0.02 | 0.00 | 49 | 1018.9 |
| 20260503185005 | 68 | 13 | 2.6 | 5.2 | 0.00 | 0.02 | 0.00 | 48 | 1018.9 |
| 20260503184903 | 69 | 9 | 2.6 | 4.3 | 0.00 | 0.02 | 0.00 | 50 | 1018.9 |
| 20260503184803 | 68 | 24 | 1.7 | 4.3 | 0.00 | 0.02 | 0.00 | 53 | 1019.0 |
| 20260503184704 | 68 | 49 | 0.9 | 4.3 | 0.00 | 0.02 | 0.00 | 55 | 1018.9 |
| 20260503184603 | 68 | 311 | 0.9 | 4.3 | 0.00 | 0.02 | 0.00 | 53 | 1019.0 |
| 20260503184506 | 68 | 227 | 0.9 | 4.3 | 0.00 | 0.02 | 0.00 | 51 | 1019.0 |
| 20260503184405 | 68 | 325 | 1.7 | 4.3 | 0.00 | 0.02 | 0.00 | 53 | 1019.0 |
| 20260503184303 | 68 | 360 | 2.6 | 4.3 | 0.00 | 0.02 | 0.00 | 50 | 1019.0 |
| 20260503184204 | 68 | 355 | 2.6 | 4.3 | 0.00 | 0.02 | 0.00 | 52 | 1019.1 |
| 20260503184104 | 68 | 23 | 2.6 | 4.3 | 0.00 | 0.02 | 0.00 | 50 | 1019.1 |
| 20260503184006 | 68 | 5 | 1.7 | 4.3 | 0.00 | 0.02 | 0.00 | 52 | 1019.0 |
| 20260503183904 | 68 | 12 | 2.6 | 4.3 | 0.00 | 0.02 | 0.00 | 51 | 1019.1 |
| 20260503183803 | 68 | 12 | 2.6 | 7.8 | 0.00 | 0.02 | 0.00 | 51 | 1019.1 |
| 20260503183603 | 68 | 348 | 0.9 | 7.8 | 0.00 | 0.02 | 0.00 | 51 | 1019.2 |
| 20260503183507 | 68 | 298 | 0.9 | 7.8 | 0.00 | 0.02 | 0.00 | 51 | 1019.1 |
| 20260503183403 | 68 | 178 | 0.9 | 7.8 | 0.00 | 0.02 | 0.00 | 51 | 1019.1 |
| 20260503183303 | 68 | 235 | 1.7 | 7.8 | 0.00 | 0.02 | 0.00 | 49 | 1019.3 |
| 20260503183203 | 68 | 336 | 2.6 | 7.8 | 0.00 | 0.02 | 0.00 | 51 | 1019.3 |
| 20260503182904 | 68 | 360 | 1.7 | 4.3 | 0.00 | 0.02 | 0.00 | 56 | 1019.2 |
| 20260503182803 | 68 | 310 | 1.7 | 4.3 | 0.00 | 0.02 | 0.00 | 54 | 1019.2 |
| 20260503182703 | 68 | 193 | 1.7 | 4.3 | 0.00 | 0.02 | 0.00 | 51 | 1019.2 |
| 20260503182404 | 67 | 12 | 1.7 | 4.3 | 0.00 | 0.02 | 0.00 | 48 | 1019.4 |
| 20260503182305 | 67 | 19 | 2.6 | 4.3 | 0.00 | 0.02 | 0.00 | 48 | 1019.3 |
| 20260503182203 | 67 | 54 | 2.6 | 4.3 | 0.00 | 0.02 | 0.00 | 48 | 1019.4 |
| 20260503182102 | 67 | 348 | 1.7 | 4.3 | 0.00 | 0.02 | 0.00 | 53 | 1019.3 |
| 20260503182006 | 67 | 5 | 1.7 | 5.2 | 0.00 | 0.02 | 0.00 | 51 | 1019.4 |
| 20260503181903 | 67 | 324 | 1.7 | 7.0 | 0.00 | 0.02 | 0.00 | 52 | 1019.4 |
| 20260503181803 | 67 | 31 | 1.7 | 7.0 | 0.00 | 0.02 | 0.00 | 54 | 1019.4 |
| 20260503181703 | 67 | 320 | 1.7 | 7.0 | 0.00 | 0.02 | 0.00 | 50 | 1019.4 |
| 20260503181603 | 67 | 323 | 2.6 | 7.0 | 0.00 | 0.02 | 0.00 | 50 | 1019.4 |
| 20260503181506 | 67 | 344 | 2.6 | 7.0 | 0.00 | 0.02 | 0.00 | 51 | 1019.5 |
| 20260503181303 | 67 | 341 | 1.7 | 7.0 | 0.00 | 0.02 | 0.00 | 51 | 1019.6 |
| 20260503181204 | 67 | 311 | 3.5 | 7.0 | 0.00 | 0.02 | 0.00 | 49 | 1019.4 |
| 20260503181103 | 67 | 312 | 3.5 | 7.0 | 0.00 | 0.02 | 0.00 | 48 | 1019.5 |
| 20260503181005 | 67 | 5 | 2.6 | 7.0 | 0.00 | 0.02 | 0.00 | 49 | 1019.5 |
| 20260503180802 | 67 | 32 | 2.6 | 7.0 | 0.00 | 0.02 | 0.00 | 50 | 1019.5 |
| 20260503180703 | 67 | 12 | 1.7 | 7.0 | 0.00 | 0.02 | 0.00 | 52 | 1019.6 |
| 20260503180604 | 67 | 346 | 1.7 | 7.0 | 0.00 | 0.02 | 0.00 | 53 | 1019.6 |
| 20260503180505 | 67 | 26 | 1.7 | 7.0 | 0.00 | 0.02 | 0.00 | 53 | 1019.6 |
| 20260503180303 | 67 | 5 | 3.5 | 7.0 | 0.00 | 0.02 | 0.00 | 53 | 1019.6 |
| 20260503180204 | 67 | 27 | 4.3 | 7.0 | 0.00 | 0.02 | 0.00 | 49 | 1019.6 |
| 20260503180007 | 68 | 360 | 2.6 | 5.2 | 0.00 | 0.02 | 0.00 | 51 | 1019.6 |
| 20260503175903 | 68 | 5 | 1.7 | 5.2 | 0.00 | 0.08 | 0.00 | 54 | 1019.6 |
| 20260503175803 | 68 | 351 | 2.6 | 5.2 | 0.00 | 0.08 | 0.00 | 51 | 1019.5 |
| 20260503175704 | 68 | 342 | 1.7 | 5.2 | 0.00 | 0.08 | 0.00 | 53 | 1019.6 |
| 20260503175603 | 68 | 343 | 0.9 | 3.5 | 0.00 | 0.08 | 0.00 | 58 | 1019.6 |
| 20260503175505 | 67 | 338 | 0.9 | 3.5 | 0.00 | 0.08 | 0.00 | 53 | 1019.5 |
| 20260503175403 | 67 | 190 | 0.9 | 4.3 | 0.00 | 0.08 | 0.00 | 51 | 1019.7 |
| 20260503175304 | 67 | 38 | 1.7 | 4.3 | 0.00 | 0.08 | 0.00 | 50 | 1019.6 |
| 20260503175202 | 67 | 61 | 1.7 | 4.3 | 0.00 | 0.08 | 0.00 | 56 | 1019.7 |
| 20260503175102 | 67 | 360 | 1.7 | 4.3 | 0.00 | 0.08 | 0.00 | 53 | 1019.7 |
| 20260503175005 | 67 | 5 | 1.7 | 4.3 | 0.00 | 0.08 | 0.00 | 52 | 1019.7 |
| 20260503174903 | 67 | 290 | 1.7 | 4.3 | 0.00 | 0.08 | 0.00 | 52 | 1019.7 |
| 20260503174804 | 67 | 244 | 1.7 | 4.3 | 0.00 | 0.08 | 0.00 | 50 | 1019.7 |
| 20260503174703 | 67 | 344 | 2.6 | 4.3 | 0.00 | 0.08 | 0.00 | 50 | 1019.7 |
| 20260503174603 | 67 | 360 | 2.6 | 4.3 | 0.00 | 0.08 | 0.00 | 51 | 1019.6 |
| 20260503174506 | 67 | 23 | 2.6 | 4.3 | 0.00 | 0.08 | 0.00 | 48 | 1019.7 |
| 20260503174403 | 67 | 350 | 2.6 | 4.3 | 0.00 | 0.08 | 0.00 | 48 | 1019.7 |
| 20260503174304 | 67 | 34 | 0.9 | 3.5 | 0.00 | 0.08 | 0.00 | 50 | 1019.7 |
| 20260503174204 | 68 | 330 | 0.9 | 3.5 | 0.00 | 0.08 | 0.00 | 52 | 1019.6 |
| 20260503174103 | 67 | 350 | 0.9 | 3.5 | 0.00 | 0.08 | 0.00 | 51 | 1019.7 |
| 20260503174006 | 67 | 345 | 0.9 | 3.5 | 0.00 | 0.08 | 0.00 | 48 | 1019.7 |
| 20260503173803 | 67 | 49 | 2.6 | 4.3 | 0.00 | 0.08 | 0.00 | 52 | 1019.8 |
| 20260503173704 | 67 | 16 | 2.6 | 5.2 | 0.00 | 0.08 | 0.00 | 50 | 1019.6 |
| 20260503173603 | 67 | 50 | 1.7 | 5.2 | 0.00 | 0.08 | 0.00 | 53 | 1019.8 |
| 20260503173505 | 67 | 305 | 1.7 | 5.2 | 0.00 | 0.08 | 0.00 | 53 | 1019.8 |
| 20260503173303 | 67 | 344 | 1.7 | 5.2 | 0.00 | 0.08 | 0.00 | 54 | 1019.8 |
| 20260503173203 | 67 | 302 | 0.9 | 5.2 | 0.00 | 0.08 | 0.00 | 53 | 1019.8 |
| 20260503173102 | 67 | 355 | 1.7 | 5.2 | 0.00 | 0.08 | 0.00 | 52 | 1019.8 |
| 20260503173006 | 67 | 355 | 2.6 | 5.2 | 0.00 | 0.08 | 0.00 | 49 | 1019.7 |
| 20260503172903 | 67 | 11 | 3.5 | 5.2 | 0.00 | 0.08 | 0.00 | 53 | 1019.8 |
| 20260503172703 | 67 | 52 | 2.6 | 4.3 | 0.00 | 0.08 | 0.00 | 50 | 1019.8 |
| 20260503172604 | 67 | 44 | 2.6 | 4.3 | 0.00 | 0.08 | 0.00 | 49 | 1019.9 |
| 20260503172506 | 67 | 338 | 2.6 | 4.3 | 0.00 | 0.08 | 0.00 | 51 | 1019.8 |
| 20260503172403 | 68 | 317 | 2.6 | 3.5 | 0.00 | 0.08 | 0.00 | 51 | 1019.8 |
| 20260503172305 | 68 | 347 | 1.7 | 3.5 | 0.00 | 0.08 | 0.00 | 53 | 1019.8 |
| 20260503172203 | 68 | 355 | 1.7 | 3.5 | 0.00 | 0.08 | 0.00 | 49 | 1019.8 |
| 20260503172103 | 68 | 28 | 1.7 | 3.5 | 0.00 | 0.08 | 0.00 | 48 | 1019.8 |
| 20260503172005 | 68 | 24 | 0.9 | 3.5 | 0.00 | 0.08 | 0.00 | 49 | 1019.8 |
| 20260503171903 | 68 | 261 | 0.9 | 4.3 | 0.00 | 0.08 | 0.00 | 54 | 1019.9 |
| 20260503171804 | 68 | 272 | 0.9 | 4.3 | 0.00 | 0.08 | 0.00 | 52 | 1019.9 |
| 20260503171704 | 68 | 329 | 1.7 | 4.3 | 0.00 | 0.08 | 0.00 | 53 | 1019.9 |
| 20260503171603 | 68 | 320 | 1.7 | 4.3 | 0.00 | 0.08 | 0.00 | 51 | 1019.9 |
| 20260503171505 | 68 | 26 | 1.7 | 4.3 | 0.00 | 0.08 | 0.00 | 56 | 1019.9 |
| 20260503171403 | 68 | 341 | 1.7 | 4.3 | 0.00 | 0.08 | 0.00 | 54 | 1019.9 |
| 20260503171303 | 68 | 311 | 1.7 | 4.3 | 0.00 | 0.08 | 0.00 | 57 | 1019.8 |
| 20260503171205 | 67 | 331 | 2.6 | 4.3 | 0.00 | 0.08 | 0.00 | 55 | 1019.8 |
| 20260503171103 | 67 | 341 | 1.7 | 4.3 | 0.00 | 0.08 | 0.00 | 53 | 1019.8 |
| 20260503171005 | 67 | 317 | 1.7 | 3.5 | 0.00 | 0.08 | 0.00 | 55 | 1019.8 |
| 20260503170903 | 67 | 19 | 1.7 | 3.5 | 0.00 | 0.08 | 0.00 | 52 | 1019.8 |
| 20260503170703 | 67 | 350 | 1.7 | 3.5 | 0.00 | 0.08 | 0.00 | 58 | 1019.9 |
| 20260503170603 | 67 | 5 | 0.9 | 3.5 | 0.00 | 0.08 | 0.00 | 54 | 1019.8 |
| 20260503170505 | 66 | 336 | 0.9 | 3.5 | 0.00 | 0.08 | 0.00 | 55 | 1019.8 |
| 20260503170403 | 66 | 306 | 0.9 | 3.5 | 0.00 | 0.08 | 0.00 | 55 | 1019.8 |
| 20260503170302 | 66 | 106 | 0.9 | 5.2 | 0.00 | 0.08 | 0.00 | 55 | 1019.8 |
| 20260503170204 | 66 | 106 | 0.9 | 5.2 | 0.00 | 0.08 | 0.00 | 57 | 1019.8 |
| 20260503151005 | 61 | 75 | 0.9 | 5.2 | 0.00 | 0.18 | 0.00 | 65 | 1020.5 |
| 20260503150904 | 61 | 81 | 1.7 | 5.2 | 0.00 | 0.18 | 0.00 | 65 | 1020.5 |
| 20260503150803 | 61 | 17 | 2.6 | 5.2 | 0.00 | 0.18 | 0.00 | 66 | 1020.5 |
| 20260503150705 | 61 | 355 | 2.6 | 5.2 | 0.00 | 0.18 | 0.00 | 66 | 1020.5 |
| 20260503150603 | 61 | 48 | 2.6 | 6.1 | 0.00 | 0.18 | 0.00 | 66 | 1020.5 |
| 20260503150505 | 61 | 58 | 2.6 | 6.1 | 0.00 | 0.18 | 0.00 | 65 | 1020.6 |
| 20260503150203 | 60 | 360 | 2.6 | 6.1 | 0.00 | 0.18 | 0.00 | 65 | 1020.6 |
| 20260503140304 | 58 | 360 | 3.5 | 7.0 | 0.00 | 0.29 | 0.00 | 73 | 1020.2 |
| 20260503140203 | 58 | 5 | 3.5 | 7.0 | 0.00 | 0.29 | 0.00 | 74 | 1020.1 |
| 20260503140103 | 58 | 42 | 2.6 | 7.0 | 0.00 | 0.29 | 0.00 | 75 | 1020.1 |
| 20260503131204 | 56 | 59 | 1.7 | 3.5 | 0.00 | 0.46 | 0.00 | 93 | 1019.9 |
| 20260503131103 | 56 | 355 | 2.6 | 3.5 | 0.00 | 0.46 | 0.00 | 95 | 1019.9 |
| 20260503131005 | 55 | 5 | 1.7 | 3.5 | 0.00 | 0.46 | 0.00 | 95 | 1020.0 |
| 20260503130904 | 55 | 5 | 0.9 | 2.6 | 0.00 | 0.46 | 0.00 | 96 | 1020.0 |
| 20260503130802 | 55 | 348 | 0.0 | 2.6 | 0.00 | 0.46 | 0.00 | 97 | 1020.0 |
| 20260503130703 | 55 | 65 | 0.0 | 1.7 | 0.00 | 0.46 | 0.00 | 97 | 1019.9 |
| 20260503130604 | 55 | 29 | 0.0 | 2.6 | 0.00 | 0.46 | 0.00 | 97 | 1020.0 |
| 20260503130505 | 54 | 24 | 0.0 | 2.6 | 0.00 | 0.46 | 0.00 | 97 | 1020.0 |
| 20260503130403 | 54 | 360 | 0.0 | 2.6 | 0.00 | 0.46 | 0.00 | 98 | 1020.0 |
| 20260503130304 | 54 | 355 | 0.0 | 2.6 | 0.00 | 0.46 | 0.00 | 98 | 1020.0 |
| 20260503130203 | 54 | 349 | 0.0 | 2.6 | 0.00 | 0.46 | 0.00 | 98 | 1020.0 |
| 20260503120203 | 49 | 139 | 0.0 | 0.0 | 0.00 | 0.52 | 0.00 | 98 | 1019.6 |
| 20260503110802 | 45 | 355 | 0.0 | 0.0 | 0.00 | 0.53 | 0.00 | 97 | 1018.7 |
| 20260503110601 | 45 | 355 | 0.0 | 0.0 | 0.00 | 0.53 | 0.00 | 97 | 1018.6 |
| 20260503110504 | 45 | 355 | 0.0 | 0.0 | 0.00 | 0.53 | 0.00 | 97 | 1018.6 |
| 20260503110402 | 45 | 355 | 0.0 | 0.0 | 0.00 | 0.53 | 0.00 | 97 | 1018.5 |
| 20260503110301 | 45 | 355 | 0.0 | 0.0 | 0.00 | 0.53 | 0.00 | 97 | 1018.5 |
| 20260503100203 | 46 | 9 | 0.0 | 0.0 | 0.00 | 0.57 | 0.00 | 97 | 1017.8 |
| 20260503090505 | 46 | 9 | 0.0 | 0.0 | 0.00 | 0.62 | 0.00 | 97 | 1017.1 |
| 20260503090403 | 46 | 9 | 0.0 | 0.0 | 0.00 | 0.62 | 0.00 | 97 | 1017.0 |
| 20260503090302 | 46 | 9 | 0.0 | 0.0 | 0.00 | 0.62 | 0.00 | 97 | 1017.0 |
| 20260503090203 | 46 | 9 | 0.0 | 0.0 | 0.00 | 0.62 | 0.00 | 97 | 1017.1 |
| 20260503081601 | 47 | 9 | 0.0 | 0.0 | 0.00 | 0.65 | 0.00 | 96 | 1016.9 |
| 20260503081505 | 47 | 9 | 0.0 | 0.0 | 0.00 | 0.65 | 0.00 | 96 | 1016.9 |
| 20260503081405 | 47 | 9 | 0.0 | 0.0 | 0.00 | 0.65 | 0.00 | 96 | 1016.9 |
| 20260503081302 | 47 | 9 | 0.0 | 0.0 | 0.00 | 0.65 | 0.00 | 96 | 1016.9 |
| 20260503081202 | 47 | 9 | 0.0 | 0.0 | 0.00 | 0.65 | 0.00 | 96 | 1016.8 |
| 20260503081101 | 47 | 9 | 0.0 | 0.0 | 0.00 | 0.65 | 0.00 | 96 | 1016.8 |
| 20260503081005 | 47 | 9 | 0.0 | 0.0 | 0.00 | 0.65 | 0.00 | 96 | 1016.8 |
| 20260503080801 | 47 | 9 | 0.0 | 0.0 | 0.00 | 0.65 | 0.00 | 96 | 1016.8 |
| 20260503080701 | 47 | 9 | 0.0 | 0.0 | 0.00 | 0.65 | 0.00 | 96 | 1016.8 |
| 20260503080601 | 47 | 9 | 0.0 | 0.0 | 0.00 | 0.65 | 0.00 | 96 | 1016.7 |
| 20260503080505 | 47 | 9 | 0.0 | 0.0 | 0.00 | 0.65 | 0.00 | 96 | 1016.7 |
| 20260503080402 | 47 | 9 | 0.0 | 0.0 | 0.00 | 0.65 | 0.00 | 96 | 1016.8 |
| 20260503080302 | 47 | 9 | 0.0 | 0.0 | 0.00 | 0.65 | 0.00 | 96 | 1016.8 |
| 20260503080202 | 47 | 9 | 0.0 | 0.0 | 0.00 | 0.65 | 0.00 | 96 | 1016.8 |
| 20260503072902 | 47 | 9 | 0.0 | 0.0 | 0.00 | 0.72 | 0.00 | 96 | 1016.4 |
| 20260503072601 | 48 | 9 | 0.0 | 0.0 | 0.00 | 0.72 | 0.00 | 96 | 1016.4 |
| 20260503072505 | 48 | 9 | 0.0 | 0.0 | 0.00 | 0.72 | 0.00 | 96 | 1016.3 |
| 20260503072403 | 48 | 9 | 0.0 | 0.0 | 0.00 | 0.72 | 0.00 | 96 | 1016.4 |
| 20260503072305 | 48 | 9 | 0.0 | 0.0 | 0.00 | 0.72 | 0.00 | 96 | 1016.4 |
| 20260503072203 | 48 | 9 | 0.0 | 0.0 | 0.00 | 0.72 | 0.00 | 96 | 1016.3 |
| 20260503071903 | 48 | 9 | 0.0 | 0.0 | 0.00 | 0.72 | 0.00 | 96 | 1016.3 |
| 20260503071802 | 48 | 9 | 0.0 | 0.0 | 0.00 | 0.72 | 0.00 | 96 | 1016.2 |
| 20260503071402 | 48 | 9 | 0.0 | 0.0 | 0.00 | 0.72 | 0.00 | 96 | 1016.3 |
| 20260503071301 | 48 | 9 | 0.0 | 0.0 | 0.00 | 0.72 | 0.00 | 96 | 1016.3 |
| 20260503071202 | 48 | 9 | 0.0 | 0.0 | 0.00 | 0.72 | 0.00 | 96 | 1016.3 |
| 20260503071101 | 48 | 9 | 0.0 | 0.0 | 0.00 | 0.72 | 0.00 | 96 | 1016.3 |
| 20260503071005 | 48 | 9 | 0.0 | 0.0 | 0.00 | 0.72 | 0.00 | 96 | 1016.2 |
| 20260503070901 | 48 | 9 | 0.0 | 0.0 | 0.00 | 0.72 | 0.00 | 96 | 1016.3 |
| 20260503070802 | 48 | 9 | 0.0 | 0.0 | 0.00 | 0.72 | 0.00 | 96 | 1016.3 |
| 20260503070701 | 48 | 9 | 0.0 | 0.0 | 0.00 | 0.72 | 0.00 | 96 | 1016.3 |
| 20260503070602 | 48 | 9 | 0.0 | 0.0 | 0.00 | 0.72 | 0.00 | 96 | 1016.3 |
| 20260503070505 | 48 | 9 | 0.0 | 0.0 | 0.00 | 0.72 | 0.00 | 96 | 1016.3 |
| 20260503070402 | 48 | 9 | 0.0 | 0.0 | 0.00 | 0.72 | 0.00 | 96 | 1016.4 |
| 20260503070303 | 48 | 9 | 0.0 | 0.0 | 0.00 | 0.72 | 0.00 | 96 | 1016.4 |
| 20260503070201 | 48 | 9 | 0.0 | 0.0 | 0.00 | 0.72 | 0.00 | 96 | 1016.4 |
| 20260503060303 | 50 | 9 | 0.0 | 0.0 | 0.00 | 0.75 | 0.00 | 95 | 1016.1 |
| 20260503060202 | 50 | 9 | 0.0 | 0.0 | 0.00 | 0.75 | 0.00 | 95 | 1016.1 |
| 20260503060103 | 50 | 9 | 0.0 | 0.0 | 0.00 | 0.75 | 0.00 | 95 | 1016.0 |
| 20260503055103 | 50 | 9 | 0.0 | 0.0 | 0.00 | 0.75 | 0.00 | 95 | 1016.1 |
| 20260503055005 | 50 | 9 | 0.0 | 0.0 | 0.00 | 0.75 | 0.00 | 95 | 1016.2 |
| 20260503054802 | 50 | 9 | 0.0 | 0.0 | 0.00 | 0.75 | 0.00 | 95 | 1016.2 |
| 20260503054704 | 50 | 9 | 0.0 | 0.0 | 0.00 | 0.75 | 0.00 | 95 | 1016.2 |
| 20260503054602 | 50 | 9 | 0.0 | 0.0 | 0.00 | 0.75 | 0.00 | 95 | 1016.2 |
| 20260503054505 | 50 | 9 | 0.0 | 0.0 | 0.00 | 0.75 | 0.00 | 95 | 1016.2 |
| 20260503054302 | 50 | 9 | 0.0 | 0.0 | 0.00 | 0.75 | 0.00 | 95 | 1016.3 |
| 20260503054202 | 50 | 9 | 0.0 | 0.0 | 0.00 | 0.75 | 0.00 | 95 | 1016.3 |
| 20260503054102 | 50 | 9 | 0.0 | 0.0 | 0.00 | 0.75 | 0.00 | 95 | 1016.2 |
| 20260503054005 | 50 | 9 | 0.0 | 0.0 | 0.00 | 0.75 | 0.00 | 95 | 1016.2 |
| 20260503053603 | 51 | 9 | 0.0 | 0.0 | 0.00 | 0.75 | 0.00 | 95 | 1016.3 |
| 20260503053505 | 51 | 9 | 0.0 | 0.0 | 0.00 | 0.75 | 0.00 | 95 | 1016.2 |
| 20260503053402 | 51 | 9 | 0.0 | 0.0 | 0.00 | 0.75 | 0.00 | 95 | 1016.2 |
| 20260503053303 | 51 | 9 | 0.0 | 0.0 | 0.00 | 0.75 | 0.00 | 95 | 1016.2 |
| 20260503053102 | 51 | 9 | 0.0 | 0.0 | 0.00 | 0.75 | 0.00 | 95 | 1016.2 |
| 20260503053006 | 51 | 9 | 0.0 | 0.0 | 0.00 | 0.75 | 0.00 | 95 | 1016.2 |
| 20260503052902 | 51 | 9 | 0.0 | 0.0 | 0.00 | 0.75 | 0.00 | 95 | 1016.2 |
| 20260503052803 | 51 | 9 | 0.0 | 0.0 | 0.00 | 0.75 | 0.00 | 95 | 1016.2 |
| 20260503052703 | 51 | 9 | 0.0 | 0.0 | 0.00 | 0.75 | 0.00 | 95 | 1016.2 |
| 20260503052603 | 51 | 9 | 0.0 | 0.0 | 0.00 | 0.75 | 0.00 | 95 | 1016.2 |
| 20260503052505 | 51 | 9 | 0.0 | 0.0 | 0.00 | 0.75 | 0.00 | 95 | 1016.2 |
| 20260503052402 | 51 | 9 | 0.0 | 0.0 | 0.00 | 0.75 | 0.00 | 95 | 1016.1 |
| 20260503052305 | 51 | 9 | 0.0 | 0.0 | 0.00 | 0.75 | 0.00 | 95 | 1016.1 |
| 20260503052203 | 51 | 9 | 0.0 | 0.0 | 0.00 | 0.75 | 0.00 | 95 | 1016.2 |
| 20260503052101 | 51 | 9 | 0.0 | 0.0 | 0.00 | 0.75 | 0.00 | 95 | 1016.1 |
| 20260503052005 | 51 | 9 | 0.0 | 0.0 | 0.00 | 0.75 | 0.00 | 95 | 1016.2 |
| 20260503051902 | 51 | 9 | 0.0 | 0.0 | 0.00 | 0.75 | 0.00 | 95 | 1016.3 |
| 20260503051802 | 51 | 9 | 0.0 | 0.0 | 0.00 | 0.75 | 0.00 | 95 | 1016.3 |
| 20260503051703 | 51 | 9 | 0.0 | 0.0 | 0.00 | 0.75 | 0.00 | 95 | 1016.2 |
| 20260503051403 | 51 | 9 | 0.0 | 0.0 | 0.00 | 0.75 | 0.00 | 95 | 1016.2 |
| 20260503051303 | 51 | 9 | 0.0 | 0.0 | 0.00 | 0.75 | 0.00 | 95 | 1016.2 |
| 20260503050903 | 51 | 9 | 0.0 | 0.0 | 0.00 | 0.75 | 0.00 | 95 | 1016.1 |
| 20260503050801 | 51 | 9 | 0.0 | 0.0 | 0.00 | 0.75 | 0.00 | 95 | 1016.2 |
| 20260503050702 | 51 | 9 | 0.0 | 0.0 | 0.00 | 0.75 | 0.00 | 95 | 1016.2 |
| 20260503050601 | 51 | 9 | 0.0 | 0.0 | 0.00 | 0.75 | 0.00 | 95 | 1016.1 |
| 20260503050505 | 51 | 9 | 0.0 | 0.0 | 0.00 | 0.75 | 0.00 | 95 | 1016.1 |
| 20260503050402 | 52 | 9 | 0.0 | 0.0 | 0.00 | 0.75 | 0.00 | 95 | 1016.1 |
| 20260503050202 | 52 | 9 | 0.0 | 0.0 | 0.00 | 0.75 | 0.00 | 95 | 1016.1 |
| 20260503050101 | 52 | 9 | 0.0 | 0.0 | 0.00 | 0.75 | 0.00 | 95 | 1016.1 |
| 20260503050006 | 52 | 9 | 0.0 | 0.0 | 0.00 | 0.75 | 0.00 | 95 | 1016.1 |
| 20260503045902 | 52 | 9 | 0.0 | 0.0 | 0.00 | 0.75 | 0.00 | 95 | 1015.9 |
| 20260503045802 | 52 | 9 | 0.0 | 0.0 | 0.00 | 0.75 | 0.00 | 95 | 1015.9 |
| 20260503045703 | 52 | 9 | 0.0 | 0.0 | 0.00 | 0.75 | 0.00 | 95 | 1015.9 |
| 20260503045402 | 52 | 9 | 0.0 | 0.0 | 0.00 | 0.75 | 0.00 | 95 | 1015.9 |
| 20260503045101 | 52 | 9 | 0.0 | 0.0 | 0.00 | 0.75 | 0.00 | 95 | 1015.8 |
| 20260503045005 | 52 | 9 | 0.0 | 0.0 | 0.00 | 0.75 | 0.00 | 95 | 1015.9 |
| 20260503044802 | 52 | 9 | 0.0 | 0.0 | 0.00 | 0.75 | 0.00 | 95 | 1015.8 |
| 20260503044704 | 52 | 9 | 0.0 | 0.0 | 0.00 | 0.75 | 0.00 | 95 | 1015.8 |
| 20260503044601 | 52 | 9 | 0.0 | 0.0 | 0.00 | 0.75 | 0.00 | 95 | 1015.8 |
| 20260503044505 | 52 | 9 | 0.0 | 0.0 | 0.00 | 0.75 | 0.00 | 95 | 1015.8 |
| 20260503044402 | 52 | 9 | 0.0 | 0.0 | 0.00 | 0.75 | 0.00 | 95 | 1015.9 |
| 20260503044302 | 52 | 9 | 0.0 | 0.0 | 0.00 | 0.75 | 0.00 | 95 | 1015.8 |
| 20260503044101 | 52 | 9 | 0.0 | 0.0 | 0.00 | 0.75 | 0.00 | 95 | 1015.8 |
| 20260503044005 | 52 | 9 | 0.0 | 0.0 | 0.00 | 0.75 | 0.00 | 95 | 1015.8 |
| 20260503043901 | 52 | 9 | 0.0 | 0.0 | 0.00 | 0.75 | 0.00 | 95 | 1015.7 |
| 20260503043801 | 52 | 9 | 0.0 | 0.0 | 0.00 | 0.75 | 0.00 | 95 | 1015.8 |
| 20260503043702 | 52 | 9 | 0.0 | 0.0 | 0.00 | 0.75 | 0.00 | 95 | 1015.7 |
| 20260503043402 | 52 | 9 | 0.0 | 0.0 | 0.00 | 0.75 | 0.00 | 95 | 1015.7 |
| 20260503042902 | 52 | 9 | 0.0 | 0.0 | 0.00 | 0.75 | 0.00 | 95 | 1015.7 |
| 20260503042803 | 52 | 9 | 0.0 | 0.0 | 0.00 | 0.75 | 0.00 | 95 | 1015.7 |
| 20260503042701 | 52 | 9 | 0.0 | 0.0 | 0.00 | 0.75 | 0.00 | 95 | 1015.7 |
| 20260503042601 | 52 | 9 | 0.0 | 0.0 | 0.00 | 0.75 | 0.00 | 95 | 1015.7 |
| 20260503042504 | 52 | 9 | 0.0 | 0.0 | 0.00 | 0.75 | 0.00 | 95 | 1015.6 |
| 20260503042301 | 52 | 9 | 0.0 | 0.0 | 0.00 | 0.75 | 0.00 | 95 | 1015.6 |
| 20260503042203 | 52 | 9 | 0.0 | 0.0 | 0.00 | 0.75 | 0.00 | 95 | 1015.6 |
| 20260503042102 | 52 | 9 | 0.0 | 0.0 | 0.00 | 0.75 | 0.00 | 94 | 1015.6 |
| 20260503042006 | 52 | 9 | 0.0 | 0.0 | 0.00 | 0.75 | 0.00 | 95 | 1015.6 |
| 20260503041902 | 52 | 9 | 0.0 | 0.0 | 0.00 | 0.75 | 0.00 | 94 | 1015.6 |
| 20260503041801 | 52 | 9 | 0.0 | 0.0 | 0.00 | 0.75 | 0.00 | 94 | 1015.6 |
| 20260503041702 | 52 | 9 | 0.0 | 0.0 | 0.00 | 0.75 | 0.00 | 94 | 1015.6 |
| 20260503041401 | 52 | 9 | 0.0 | 0.9 | 0.00 | 0.75 | 0.00 | 94 | 1015.5 |
| 20260503041301 | 52 | 9 | 0.0 | 0.9 | 0.00 | 0.75 | 0.00 | 94 | 1015.4 |
| 20260503041203 | 52 | 9 | 0.0 | 0.9 | 0.00 | 0.75 | 0.00 | 95 | 1015.5 |
| 20260503041102 | 52 | 9 | 0.0 | 0.9 | 0.00 | 0.75 | 0.00 | 95 | 1015.4 |
| 20260503041005 | 52 | 9 | 0.0 | 0.9 | 0.00 | 0.75 | 0.00 | 94 | 1015.3 |
| 20260503040903 | 52 | 9 | 0.0 | 0.9 | 0.00 | 0.75 | 0.00 | 94 | 1015.3 |
| 20260503040803 | 52 | 9 | 0.0 | 0.9 | 0.00 | 0.75 | 0.00 | 95 | 1015.3 |
| 20260503040702 | 52 | 9 | 0.0 | 1.7 | 0.00 | 0.75 | 0.00 | 95 | 1015.4 |
| 20260503040603 | 52 | 9 | 0.0 | 1.7 | 0.00 | 0.75 | 0.00 | 95 | 1015.4 |
| 20260503040505 | 52 | 9 | 0.0 | 1.7 | 0.00 | 0.75 | 0.00 | 95 | 1015.4 |
| 20260503040402 | 52 | 9 | 0.0 | 1.7 | 0.00 | 0.75 | 0.00 | 94 | 1015.5 |
| 20260503040302 | 52 | 9 | 0.0 | 1.7 | 0.00 | 0.75 | 0.00 | 94 | 1015.5 |
| 20260503040204 | 52 | 342 | 0.9 | 1.7 | 0.00 | 0.75 | 0.00 | 94 | 1015.5 |
| 20260503040005 | 52 | 342 | 0.9 | 1.7 | 0.00 | 0.75 | 0.75 | 95 | 1015.5 |
| 20260503035904 | 52 | 342 | 0.9 | 1.7 | 0.00 | 0.75 | 0.75 | 95 | 1015.6 |
| 20260503035804 | 52 | 342 | 0.0 | 1.7 | 0.00 | 0.75 | 0.75 | 94 | 1015.6 |
| 20260503035705 | 52 | 344 | 0.0 | 1.7 | 0.00 | 0.75 | 0.75 | 94 | 1015.6 |
| 20260503035604 | 52 | 349 | 0.0 | 0.0 | 0.00 | 0.75 | 0.75 | 95 | 1015.5 |
| 20260503035506 | 52 | 349 | 0.0 | 0.0 | 0.00 | 0.75 | 0.75 | 95 | 1015.5 |
| 20260503035404 | 52 | 349 | 0.0 | 0.0 | 0.00 | 0.75 | 0.75 | 95 | 1015.5 |
| 20260503035305 | 52 | 349 | 0.0 | 0.0 | 0.00 | 0.75 | 0.75 | 95 | 1015.5 |
| 20260503035204 | 52 | 350 | 0.0 | 0.0 | 0.00 | 0.75 | 0.75 | 95 | 1015.5 |
| 20260503035105 | 52 | 347 | 0.0 | 0.0 | 0.00 | 0.75 | 0.75 | 95 | 1015.4 |
| 20260503035005 | 52 | 347 | 0.0 | 0.0 | 0.00 | 0.75 | 0.75 | 95 | 1015.4 |
| 20260503034903 | 52 | 347 | 0.0 | 0.0 | 0.00 | 0.75 | 0.75 | 95 | 1015.5 |
| 20260503034805 | 52 | 347 | 0.0 | 0.0 | 0.00 | 0.75 | 0.75 | 95 | 1015.4 |
| 20260503034704 | 52 | 347 | 0.0 | 0.0 | 0.00 | 0.75 | 0.75 | 95 | 1015.5 |
| 20260503034604 | 52 | 347 | 0.0 | 0.0 | 0.00 | 0.75 | 0.75 | 95 | 1015.5 |
| 20260503034506 | 52 | 355 | 0.0 | 0.0 | 0.00 | 0.75 | 0.75 | 95 | 1015.6 |
| 20260503034404 | 52 | 355 | 0.0 | 0.0 | 0.00 | 0.75 | 0.75 | 95 | 1015.5 |
| 20260503034304 | 52 | 355 | 0.0 | 0.0 | 0.00 | 0.75 | 0.75 | 95 | 1015.5 |
| 20260503034205 | 52 | 355 | 0.0 | 0.0 | 0.00 | 0.75 | 0.75 | 95 | 1015.6 |
| 20260503033905 | 52 | 355 | 0.0 | 0.0 | 0.00 | 0.75 | 0.75 | 95 | 1015.5 |
| 20260503033804 | 52 | 355 | 0.0 | 0.0 | 0.00 | 0.75 | 0.75 | 95 | 1015.4 |
| 20260503033704 | 52 | 355 | 0.0 | 0.0 | 0.00 | 0.75 | 0.75 | 95 | 1015.4 |
| 20260503033604 | 52 | 355 | 0.0 | 0.0 | 0.00 | 0.75 | 0.75 | 95 | 1015.3 |
| 20260503033507 | 52 | 355 | 0.0 | 0.0 | 0.00 | 0.75 | 0.75 | 95 | 1015.4 |
| 20260503033404 | 52 | 355 | 0.0 | 0.0 | 0.00 | 0.75 | 0.75 | 96 | 1015.3 |
| 20260503033305 | 52 | 355 | 0.0 | 0.0 | 0.00 | 0.75 | 0.75 | 95 | 1015.3 |
| 20260503033204 | 52 | 355 | 0.0 | 0.0 | 0.00 | 0.75 | 0.75 | 95 | 1015.2 |
| 20260503033104 | 52 | 355 | 0.0 | 0.0 | 0.00 | 0.75 | 0.75 | 95 | 1015.3 |
| 20260503033007 | 52 | 355 | 0.0 | 0.0 | 0.00 | 0.75 | 0.75 | 95 | 1015.2 |
| 20260503032904 | 52 | 355 | 0.0 | 0.0 | 0.00 | 0.75 | 0.75 | 96 | 1015.2 |
| 20260503032804 | 52 | 355 | 0.0 | 0.0 | 0.00 | 0.75 | 0.75 | 96 | 1015.1 |
| 20260503032704 | 52 | 355 | 0.0 | 0.0 | 0.00 | 0.75 | 0.75 | 96 | 1015.1 |
| 20260503032605 | 52 | 355 | 0.0 | 0.0 | 0.00 | 0.75 | 0.75 | 95 | 1015.2 |
| 20260503032506 | 52 | 355 | 0.0 | 0.0 | 0.00 | 0.75 | 0.75 | 95 | 1015.2 |
| 20260503032404 | 52 | 355 | 0.0 | 0.0 | 0.00 | 0.75 | 0.75 | 95 | 1015.2 |
| 20260503032305 | 52 | 355 | 0.0 | 0.0 | 0.00 | 0.75 | 0.75 | 95 | 1015.2 |
| 20260503032104 | 52 | 355 | 0.0 | 0.0 | 0.00 | 0.75 | 0.75 | 95 | 1015.1 |
| 20260503032006 | 52 | 355 | 0.0 | 0.0 | 0.00 | 0.75 | 0.75 | 95 | 1015.1 |
| 20260503031905 | 52 | 355 | 0.0 | 0.0 | 0.00 | 0.75 | 0.75 | 95 | 1015.2 |
| 20260503031804 | 53 | 355 | 0.0 | 0.0 | 0.00 | 0.75 | 0.75 | 95 | 1015.2 |
| 20260503031404 | 53 | 355 | 0.0 | 0.0 | 0.00 | 0.75 | 0.75 | 95 | 1015.2 |
| 20260503031304 | 53 | 355 | 0.0 | 0.0 | 0.00 | 0.75 | 0.75 | 95 | 1015.1 |
| 20260503031204 | 53 | 355 | 0.0 | 0.0 | 0.00 | 0.75 | 0.75 | 95 | 1015.1 |
| 20260503031105 | 53 | 355 | 0.0 | 0.0 | 0.00 | 0.75 | 0.75 | 95 | 1015.0 |
| 20260503031006 | 53 | 355 | 0.0 | 0.0 | 0.00 | 0.75 | 0.75 | 95 | 1015.0 |
| 20260503030904 | 53 | 355 | 0.0 | 0.0 | 0.00 | 0.75 | 0.75 | 95 | 1015.0 |
| 20260503030804 | 53 | 355 | 0.0 | 0.0 | 0.00 | 0.75 | 0.75 | 95 | 1015.0 |
| 20260503030704 | 53 | 355 | 0.0 | 0.0 | 0.00 | 0.75 | 0.75 | 95 | 1014.9 |
| 20260503030604 | 53 | 355 | 0.0 | 0.0 | 0.00 | 0.75 | 0.75 | 95 | 1014.9 |
| 20260503030505 | 53 | 355 | 0.0 | 0.0 | 0.00 | 0.75 | 0.75 | 95 | 1014.8 |
| 20260503030405 | 53 | 355 | 0.0 | 0.0 | 0.00 | 0.75 | 0.75 | 95 | 1014.8 |
| 20260503030304 | 53 | 355 | 0.0 | 0.0 | 0.00 | 0.75 | 0.75 | 95 | 1014.8 |
| 20260503030204 | 53 | 355 | 0.0 | 0.0 | 0.00 | 0.75 | 0.75 | 95 | 1014.8 |
| 20260503030104 | 53 | 355 | 0.0 | 0.0 | 0.00 | 0.75 | 0.75 | 95 | 1014.8 |
| 20260503030008 | 53 | 355 | 0.0 | 0.0 | 0.00 | 0.75 | 0.75 | 95 | 1014.8 |
| 20260503025804 | 53 | 355 | 0.0 | 0.0 | 0.00 | 0.75 | 0.75 | 95 | 1014.7 |
| 20260503025705 | 53 | 355 | 0.0 | 0.0 | 0.00 | 0.75 | 0.75 | 95 | 1014.7 |
| 20260503025604 | 53 | 355 | 0.0 | 0.0 | 0.00 | 0.75 | 0.75 | 95 | 1014.6 |
| 20260503025506 | 53 | 355 | 0.0 | 0.0 | 0.00 | 0.75 | 0.75 | 95 | 1014.6 |
| 20260503025404 | 53 | 355 | 0.0 | 0.0 | 0.00 | 0.75 | 0.75 | 95 | 1014.5 |
| 20260503025305 | 53 | 355 | 0.0 | 0.0 | 0.00 | 0.75 | 0.75 | 95 | 1014.4 |
| 20260503025204 | 53 | 355 | 0.0 | 0.0 | 0.00 | 0.75 | 0.75 | 95 | 1014.5 |
| 20260503025105 | 53 | 355 | 0.0 | 0.0 | 0.00 | 0.75 | 0.75 | 95 | 1014.5 |
| 20260503025006 | 53 | 355 | 0.0 | 0.0 | 0.00 | 0.75 | 0.75 | 95 | 1014.5 |
| 20260503024904 | 53 | 355 | 0.0 | 0.0 | 0.00 | 0.75 | 0.75 | 95 | 1014.5 |
| 20260503024805 | 53 | 355 | 0.0 | 0.0 | 0.00 | 0.75 | 0.75 | 95 | 1014.5 |
| 20260503024705 | 53 | 355 | 0.0 | 0.0 | 0.00 | 0.75 | 0.75 | 95 | 1014.3 |
| 20260503024604 | 53 | 355 | 0.0 | 0.0 | 0.00 | 0.75 | 0.75 | 95 | 1014.4 |
| 20260503024506 | 53 | 355 | 0.0 | 0.0 | 0.00 | 0.75 | 0.75 | 95 | 1014.4 |
| 20260503024404 | 53 | 355 | 0.0 | 0.0 | 0.00 | 0.75 | 0.75 | 95 | 1014.4 |
| 20260503024304 | 53 | 355 | 0.0 | 0.9 | 0.00 | 0.75 | 0.75 | 95 | 1014.4 |
| 20260503024204 | 53 | 355 | 0.0 | 0.9 | 0.00 | 0.75 | 0.75 | 95 | 1014.4 |
| 20260503024105 | 53 | 355 | 0.0 | 0.9 | 0.00 | 0.75 | 0.75 | 95 | 1014.4 |
| 20260503024005 | 53 | 355 | 0.0 | 1.7 | 0.00 | 0.75 | 0.75 | 95 | 1014.3 |
| 20260503023805 | 53 | 355 | 0.0 | 1.7 | 0.00 | 0.75 | 0.75 | 95 | 1014.3 |
| 20260503023704 | 53 | 355 | 0.0 | 1.7 | 0.00 | 0.75 | 0.75 | 95 | 1014.3 |
| 20260503023604 | 53 | 355 | 0.0 | 1.7 | 0.00 | 0.75 | 0.75 | 95 | 1014.2 |
| 20260503023505 | 53 | 355 | 0.0 | 1.7 | 0.00 | 0.75 | 0.75 | 95 | 1014.3 |
| 20260503023404 | 53 | 355 | 0.0 | 2.6 | 0.00 | 0.75 | 0.75 | 95 | 1014.2 |
| 20260503023304 | 53 | 355 | 0.9 | 2.6 | 0.00 | 0.75 | 0.75 | 95 | 1014.1 |
| 20260503023203 | 53 | 355 | 0.9 | 2.6 | 0.00 | 0.75 | 0.75 | 95 | 1014.1 |
| 20260503023104 | 53 | 355 | 0.9 | 2.6 | 0.00 | 0.75 | 0.75 | 95 | 1014.2 |
| 20260503023006 | 53 | 355 | 0.9 | 2.6 | 0.00 | 0.75 | 0.75 | 95 | 1014.2 |
| 20260503022704 | 54 | 355 | 0.9 | 2.6 | 0.00 | 0.75 | 0.75 | 95 | 1014.2 |
| 20260503022604 | 54 | 355 | 0.9 | 2.6 | 0.00 | 0.75 | 0.75 | 95 | 1014.2 |
| 20260503022506 | 54 | 355 | 0.9 | 2.6 | 0.00 | 0.75 | 0.75 | 95 | 1014.1 |
| 20260503022204 | 54 | 355 | 0.9 | 2.6 | 0.00 | 0.75 | 0.75 | 95 | 1014.1 |
| 20260503022104 | 54 | 355 | 0.9 | 2.6 | 0.00 | 0.75 | 0.75 | 95 | 1014.1 |
| 20260503022005 | 54 | 355 | 1.7 | 2.6 | 0.00 | 0.75 | 0.75 | 95 | 1014.1 |
| 20260503021903 | 54 | 355 | 0.9 | 2.6 | 0.00 | 0.75 | 0.75 | 95 | 1014.2 |
| 20260503021804 | 54 | 51 | 0.9 | 2.6 | 0.00 | 0.75 | 0.75 | 95 | 1014.1 |
| 20260503021703 | 54 | 355 | 0.0 | 0.0 | 0.00 | 0.75 | 0.75 | 95 | 1014.1 |
| 20260503021605 | 54 | 355 | 0.0 | 0.0 | 0.00 | 0.75 | 0.75 | 95 | 1014.1 |
| 20260503021506 | 54 | 340 | 0.0 | 0.9 | 0.00 | 0.75 | 0.75 | 95 | 1014.2 |
| 20260503021403 | 54 | 335 | 0.0 | 0.9 | 0.00 | 0.75 | 0.75 | 95 | 1014.1 |
| 20260503021304 | 54 | 5 | 0.0 | 0.9 | 0.00 | 0.75 | 0.75 | 95 | 1014.1 |
| 20260503021204 | 54 | 5 | 0.0 | 0.9 | 0.00 | 0.75 | 0.75 | 95 | 1014.1 |
| 20260503021105 | 54 | 5 | 0.0 | 0.9 | 0.00 | 0.75 | 0.75 | 95 | 1014.1 |
| 20260503021005 | 54 | 5 | 0.0 | 0.9 | 0.00 | 0.75 | 0.75 | 95 | 1014.0 |
| 20260503020704 | 54 | 5 | 0.0 | 0.9 | 0.00 | 0.75 | 0.75 | 95 | 1014.0 |
| 20260503020604 | 54 | 5 | 0.0 | 1.7 | 0.00 | 0.75 | 0.75 | 95 | 1014.0 |
| 20260503020506 | 54 | 9 | 0.0 | 1.7 | 0.00 | 0.75 | 0.75 | 95 | 1014.0 |
| 20260503020404 | 54 | 355 | 0.0 | 1.7 | 0.00 | 0.75 | 0.75 | 95 | 1014.1 |
| 20260503020304 | 54 | 355 | 0.0 | 1.7 | 0.00 | 0.75 | 0.75 | 95 | 1014.0 |
| 20260503020204 | 54 | 355 | 0.0 | 1.7 | 0.00 | 0.75 | 0.75 | 95 | 1014.0 |
| 20260503020007 | 54 | 355 | 0.0 | 1.7 | 0.00 | 0.75 | 0.75 | 95 | 1014.0 |
| 20260503015904 | 54 | 355 | 0.9 | 1.7 | 0.00 | 0.75 | 0.75 | 95 | 1014.0 |
| 20260503015805 | 54 | 355 | 0.9 | 1.7 | 0.00 | 0.75 | 0.75 | 95 | 1014.0 |
| 20260503015704 | 54 | 355 | 0.9 | 1.7 | 0.00 | 0.75 | 0.75 | 95 | 1014.1 |
| 20260503015604 | 54 | 355 | 0.9 | 1.7 | 0.00 | 0.75 | 0.75 | 95 | 1014.0 |
| 20260503015506 | 54 | 355 | 0.9 | 1.7 | 0.00 | 0.75 | 0.75 | 95 | 1014.0 |
| 20260503015404 | 54 | 355 | 0.9 | 1.7 | 0.00 | 0.75 | 0.75 | 95 | 1013.9 |
| 20260503015204 | 54 | 355 | 0.9 | 1.7 | 0.00 | 0.75 | 0.75 | 95 | 1013.9 |
| 20260503015103 | 54 | 355 | 0.9 | 1.7 | 0.00 | 0.75 | 0.75 | 95 | 1013.8 |
| 20260503015006 | 54 | 355 | 0.9 | 1.7 | 0.00 | 0.75 | 0.75 | 95 | 1013.9 |
| 20260503014904 | 54 | 355 | 0.9 | 1.7 | 0.00 | 0.75 | 0.75 | 95 | 1013.9 |
| 20260503014805 | 54 | 355 | 0.9 | 1.7 | 0.00 | 0.75 | 0.75 | 95 | 1013.9 |
| 20260503014704 | 54 | 355 | 0.9 | 2.6 | 0.00 | 0.75 | 0.75 | 95 | 1013.9 |
| 20260503014604 | 54 | 355 | 0.9 | 2.6 | 0.00 | 0.75 | 0.75 | 95 | 1013.9 |
| 20260503014505 | 54 | 355 | 0.9 | 2.6 | 0.00 | 0.75 | 0.75 | 95 | 1013.8 |
| 20260503014405 | 54 | 355 | 0.9 | 2.6 | 0.00 | 0.75 | 0.75 | 95 | 1013.8 |
| 20260503014303 | 54 | 355 | 0.9 | 2.6 | 0.00 | 0.75 | 0.75 | 95 | 1013.8 |
| 20260503014203 | 54 | 355 | 0.9 | 2.6 | 0.00 | 0.75 | 0.75 | 95 | 1013.9 |
| 20260503014104 | 54 | 355 | 0.9 | 2.6 | 0.00 | 0.75 | 0.75 | 95 | 1013.9 |
| 20260503014005 | 54 | 355 | 0.9 | 2.6 | 0.00 | 0.75 | 0.75 | 95 | 1013.8 |
| 20260503013903 | 54 | 355 | 0.9 | 2.6 | 0.00 | 0.75 | 0.75 | 95 | 1013.9 |
| 20260503013604 | 54 | 355 | 0.9 | 1.7 | 0.00 | 0.75 | 0.75 | 95 | 1013.8 |
| 20260503013506 | 54 | 355 | 0.9 | 1.7 | 0.00 | 0.75 | 0.75 | 95 | 1013.8 |
| 20260503013405 | 54 | 355 | 0.9 | 1.7 | 0.00 | 0.75 | 0.75 | 95 | 1013.8 |
| 20260503013304 | 54 | 355 | 0.9 | 1.7 | 0.00 | 0.75 | 0.75 | 95 | 1013.7 |
| 20260503013204 | 54 | 355 | 0.9 | 0.9 | 0.00 | 0.75 | 0.75 | 95 | 1013.8 |
| 20260503013105 | 54 | 355 | 0.9 | 1.7 | 0.00 | 0.75 | 0.75 | 95 | 1013.8 |
| 20260503013006 | 54 | 355 | 0.9 | 1.7 | 0.00 | 0.75 | 0.75 | 95 | 1013.7 |
| 20260503012904 | 54 | 355 | 0.9 | 1.7 | 0.00 | 0.75 | 0.75 | 95 | 1013.7 |
| 20260503012804 | 54 | 355 | 0.0 | 1.7 | 0.00 | 0.75 | 0.75 | 95 | 1013.6 |
| 20260503012704 | 54 | 355 | 0.0 | 1.7 | 0.00 | 0.75 | 0.75 | 95 | 1013.6 |
| 20260503012604 | 54 | 355 | 0.0 | 1.7 | 0.00 | 0.75 | 0.75 | 95 | 1013.6 |
| 20260503012506 | 54 | 355 | 0.0 | 1.7 | 0.00 | 0.75 | 0.75 | 95 | 1013.6 |
| 20260503012405 | 54 | 355 | 0.9 | 1.7 | 0.00 | 0.75 | 0.75 | 95 | 1013.5 |
| 20260503012205 | 54 | 355 | 0.9 | 1.7 | 0.00 | 0.75 | 0.75 | 95 | 1013.4 |
| 20260503012104 | 54 | 355 | 0.9 | 1.7 | 0.00 | 0.75 | 0.75 | 95 | 1013.4 |
| 20260503012007 | 54 | 355 | 0.9 | 1.7 | 0.00 | 0.75 | 0.75 | 95 | 1013.4 |
| 20260503011704 | 54 | 355 | 0.9 | 1.7 | 0.00 | 0.75 | 0.75 | 95 | 1013.4 |
| 20260503011506 | 54 | 355 | 0.0 | 2.6 | 0.00 | 0.75 | 0.75 | 95 | 1013.4 |
| 20260503011404 | 54 | 355 | 0.0 | 2.6 | 0.00 | 0.75 | 0.75 | 94 | 1013.4 |
| 20260503011303 | 54 | 355 | 0.9 | 2.6 | 0.00 | 0.75 | 0.75 | 95 | 1013.4 |
| 20260503011204 | 54 | 355 | 0.9 | 2.6 | 0.00 | 0.75 | 0.75 | 95 | 1013.3 |
| 20260503011104 | 54 | 355 | 0.9 | 2.6 | 0.00 | 0.75 | 0.75 | 94 | 1013.3 |
| 20260503011006 | 54 | 355 | 0.9 | 2.6 | 0.00 | 0.75 | 0.75 | 94 | 1013.4 |
| 20260503010904 | 54 | 355 | 0.9 | 2.6 | 0.00 | 0.75 | 0.75 | 94 | 1013.4 |
| 20260503010803 | 54 | 355 | 0.9 | 2.6 | 0.00 | 0.75 | 0.75 | 94 | 1013.3 |
| 20260503010704 | 54 | 360 | 0.9 | 2.6 | 0.00 | 0.75 | 0.75 | 94 | 1013.4 |
| 20260503010604 | 54 | 349 | 0.9 | 2.6 | 0.00 | 0.75 | 0.75 | 94 | 1013.4 |
| 20260503010505 | 54 | 349 | 0.9 | 2.6 | 0.00 | 0.75 | 0.75 | 94 | 1013.3 |
| 20260503010405 | 54 | 350 | 0.9 | 2.6 | 0.00 | 0.75 | 0.75 | 94 | 1013.3 |
| 20260503010305 | 54 | 350 | 0.9 | 2.6 | 0.00 | 0.75 | 0.75 | 94 | 1013.3 |
| 20260503010205 | 54 | 350 | 1.7 | 2.6 | 0.00 | 0.75 | 0.75 | 94 | 1013.3 |
| 20260503010104 | 54 | 355 | 1.7 | 2.6 | 0.00 | 0.75 | 0.75 | 94 | 1013.2 |
| 20260503010006 | 54 | 355 | 0.9 | 2.6 | 0.00 | 0.76 | 0.75 | 94 | 1013.3 |
| 20260503005902 | 54 | 355 | 0.9 | 2.6 | 0.00 | 0.76 | 0.75 | 94 | 1013.3 |
| 20260503005804 | 54 | 5 | 0.9 | 2.6 | 0.00 | 0.76 | 0.75 | 94 | 1013.3 |
| 20260503005704 | 54 | 5 | 0.9 | 3.5 | 0.00 | 0.76 | 0.75 | 94 | 1013.3 |
| 20260503005605 | 54 | 5 | 1.7 | 3.5 | 0.00 | 0.76 | 0.75 | 94 | 1013.2 |
| 20260503005506 | 54 | 5 | 1.7 | 3.5 | 0.00 | 0.76 | 0.75 | 94 | 1013.3 |
| 20260503005404 | 54 | 5 | 1.7 | 3.5 | 0.00 | 0.76 | 0.75 | 94 | 1013.2 |
| 20260503005202 | 54 | 355 | 1.7 | 3.5 | 0.00 | 0.76 | 0.75 | 94 | 1013.3 |
| 20260503004903 | 54 | 355 | 1.7 | 3.5 | 0.00 | 0.76 | 0.75 | 94 | 1013.2 |
| 20260503004803 | 54 | 351 | 1.7 | 2.6 | 0.00 | 0.76 | 0.75 | 94 | 1013.0 |
| 20260503004702 | 55 | 355 | 1.7 | 7.0 | 0.00 | 0.76 | 0.75 | 95 | 1013.2 |
| 20260503004603 | 55 | 355 | 1.7 | 7.0 | 0.00 | 0.76 | 0.75 | 95 | 1013.1 |
| 20260503004506 | 55 | 360 | 1.7 | 7.0 | 0.00 | 0.76 | 0.75 | 94 | 1013.1 |
| 20260503004403 | 55 | 355 | 1.7 | 7.0 | 0.00 | 0.76 | 0.75 | 95 | 1013.1 |
| 20260503004303 | 55 | 5 | 1.7 | 7.0 | 0.00 | 0.76 | 0.75 | 95 | 1013.2 |
| 20260503004203 | 55 | 351 | 1.7 | 7.0 | 0.00 | 0.76 | 0.75 | 95 | 1013.1 |
| 20260503004103 | 55 | 22 | 1.7 | 7.0 | 0.00 | 0.76 | 0.75 | 95 | 1013.2 |
| 20260503004005 | 55 | 24 | 1.7 | 7.0 | 0.00 | 0.76 | 0.75 | 95 | 1013.2 |
| 20260503003903 | 55 | 5 | 2.6 | 7.0 | 0.00 | 0.76 | 0.75 | 95 | 1013.2 |
| 20260503003802 | 55 | 355 | 1.7 | 7.0 | 0.00 | 0.76 | 0.75 | 95 | 1013.3 |
| 20260503003703 | 55 | 16 | 1.7 | 2.6 | 0.00 | 0.76 | 0.75 | 95 | 1013.2 |
| 20260503003603 | 55 | 355 | 0.9 | 2.6 | 0.00 | 0.76 | 0.75 | 95 | 1013.3 |
| 20260503003506 | 55 | 355 | 0.9 | 2.6 | 0.00 | 0.76 | 0.75 | 95 | 1013.2 |
| 20260503003303 | 55 | 355 | 0.9 | 2.6 | 0.00 | 0.76 | 0.75 | 95 | 1013.2 |
| 20260503003202 | 55 | 355 | 1.7 | 2.6 | 0.00 | 0.76 | 0.75 | 95 | 1013.2 |
| 20260503003103 | 55 | 5 | 1.7 | 2.6 | 0.00 | 0.76 | 0.75 | 95 | 1013.1 |
| 20260503003005 | 55 | 5 | 1.7 | 2.6 | 0.00 | 0.76 | 0.75 | 95 | 1013.2 |
| 20260503002903 | 55 | 5 | 1.7 | 2.6 | 0.00 | 0.76 | 0.75 | 95 | 1013.2 |
| 20260503002803 | 55 | 5 | 0.9 | 2.6 | 0.00 | 0.76 | 0.75 | 95 | 1013.2 |
| 20260503002703 | 55 | 9 | 0.0 | 2.6 | 0.00 | 0.76 | 0.75 | 95 | 1013.1 |
| 20260503002603 | 55 | 348 | 0.0 | 2.6 | 0.00 | 0.76 | 0.75 | 95 | 1013.1 |
| 20260503002507 | 55 | 348 | 0.9 | 2.6 | 0.00 | 0.76 | 0.75 | 95 | 1013.1 |
| 20260503002403 | 55 | 348 | 1.7 | 2.6 | 0.00 | 0.76 | 0.75 | 95 | 1013.1 |
| 20260503002305 | 55 | 355 | 1.7 | 3.5 | 0.00 | 0.76 | 0.75 | 95 | 1013.0 |
| 20260503002203 | 55 | 355 | 1.7 | 3.5 | 0.00 | 0.76 | 0.75 | 95 | 1013.0 |
| 20260503002103 | 55 | 360 | 1.7 | 3.5 | 0.00 | 0.76 | 0.75 | 95 | 1013.0 |
| 20260503002006 | 55 | 355 | 1.7 | 3.5 | 0.00 | 0.76 | 0.75 | 95 | 1013.0 |
| 20260503001903 | 55 | 360 | 1.7 | 3.5 | 0.00 | 0.76 | 0.75 | 95 | 1013.0 |
| 20260503001803 | 55 | 5 | 1.7 | 3.5 | 0.00 | 0.76 | 0.75 | 95 | 1012.9 |
| 20260503001603 | 55 | 355 | 1.7 | 3.5 | 0.00 | 0.76 | 0.75 | 95 | 1012.8 |
| 20260503001505 | 55 | 5 | 1.7 | 3.5 | 0.00 | 0.76 | 0.75 | 95 | 1012.7 |
| 20260503001404 | 55 | 360 | 1.7 | 3.5 | 0.00 | 0.76 | 0.75 | 95 | 1012.7 |
| 20260503001303 | 55 | 348 | 1.7 | 3.5 | 0.00 | 0.76 | 0.75 | 95 | 1012.7 |
| 20260503001103 | 55 | 360 | 1.7 | 3.5 | 0.00 | 0.76 | 0.75 | 95 | 1012.7 |
| 20260503001006 | 55 | 351 | 1.7 | 3.5 | 0.00 | 0.76 | 0.75 | 95 | 1012.7 |
| 20260503000903 | 55 | 5 | 0.9 | 2.6 | 0.00 | 0.76 | 0.75 | 95 | 1012.7 |
| 20260503000802 | 55 | 5 | 1.7 | 2.6 | 0.00 | 0.76 | 0.75 | 95 | 1012.6 |
| 20260503000703 | 55 | 5 | 0.9 | 2.6 | 0.00 | 0.76 | 0.75 | 95 | 1012.6 |
| 20260503000603 | 55 | 5 | 0.9 | 2.6 | 0.00 | 0.76 | 0.75 | 95 | 1012.6 |
| 20260503000505 | 55 | 5 | 0.9 | 2.6 | 0.00 | 0.76 | 0.75 | 95 | 1012.6 |
| 20260503000404 | 55 | 5 | 0.9 | 2.6 | 0.00 | 0.76 | 0.75 | 95 | 1012.7 |
| 20260503000303 | 55 | 329 | 0.9 | 2.6 | 0.00 | 0.76 | 0.75 | 95 | 1012.6 |
| 20260503000203 | 55 | 5 | 0.9 | 2.6 | 0.00 | 0.76 | 0.75 | 95 | 1012.6 |
| 20260502235904 | 55 | 360 | 1.7 | 2.6 | 0.00 | 0.76 | 0.75 | 95 | 1012.6 |
| 20260502235804 | 55 | 360 | 1.7 | 2.6 | 0.00 | 0.76 | 0.75 | 95 | 1012.6 |
| 20260502235704 | 55 | 360 | 1.7 | 2.6 | 0.00 | 0.76 | 0.75 | 95 | 1012.5 |
| 20260502235603 | 55 | 360 | 1.7 | 2.6 | 0.00 | 0.76 | 0.75 | 95 | 1012.5 |
| 20260502235506 | 55 | 360 | 1.7 | 2.6 | 0.00 | 0.76 | 0.75 | 95 | 1012.5 |
| 20260502235305 | 55 | 360 | 0.9 | 2.6 | 0.00 | 0.76 | 0.75 | 95 | 1012.4 |
| 20260502235203 | 55 | 10 | 0.9 | 1.7 | 0.00 | 0.76 | 0.75 | 95 | 1012.4 |
| 20260502235103 | 55 | 10 | 0.9 | 1.7 | 0.00 | 0.76 | 0.75 | 95 | 1012.3 |
| 20260502235006 | 55 | 12 | 0.0 | 1.7 | 0.00 | 0.76 | 0.75 | 95 | 1012.3 |
| 20260502234904 | 55 | 5 | 0.0 | 3.5 | 0.00 | 0.76 | 0.75 | 95 | 1012.2 |
| 20260502234804 | 55 | 5 | 0.0 | 3.5 | 0.00 | 0.76 | 0.75 | 95 | 1012.3 |
| 20260502234705 | 55 | 5 | 0.9 | 3.5 | 0.00 | 0.76 | 0.75 | 95 | 1012.3 |
| 20260502234605 | 55 | 5 | 0.9 | 3.5 | 0.00 | 0.76 | 0.75 | 94 | 1012.3 |
| 20260502234505 | 55 | 5 | 1.7 | 3.5 | 0.00 | 0.76 | 0.75 | 95 | 1012.2 |
| 20260502234404 | 55 | 12 | 0.9 | 3.5 | 0.00 | 0.76 | 0.75 | 94 | 1012.3 |
| 20260502234103 | 55 | 38 | 1.7 | 3.5 | 0.00 | 0.76 | 0.75 | 94 | 1012.2 |
| 20260502234006 | 55 | 355 | 1.7 | 3.5 | 0.00 | 0.76 | 0.75 | 94 | 1012.3 |
| 20260502233803 | 55 | 355 | 2.6 | 4.3 | 0.00 | 0.76 | 0.75 | 95 | 1012.3 |
| 20260502233704 | 55 | 355 | 1.7 | 5.2 | 0.00 | 0.76 | 0.75 | 95 | 1012.2 |
| 20260502233604 | 55 | 5 | 1.7 | 5.2 | 0.00 | 0.76 | 0.75 | 95 | 1012.3 |
| 20260502233506 | 55 | 351 | 1.7 | 5.2 | 0.00 | 0.76 | 0.75 | 95 | 1012.2 |
| 20260502233404 | 55 | 355 | 1.7 | 5.2 | 0.00 | 0.76 | 0.75 | 95 | 1012.2 |
| 20260502233304 | 55 | 5 | 2.6 | 5.2 | 0.00 | 0.76 | 0.75 | 95 | 1012.2 |
| 20260502233205 | 55 | 360 | 2.6 | 5.2 | 0.00 | 0.76 | 0.75 | 95 | 1012.1 |
| 20260502233104 | 55 | 5 | 2.6 | 5.2 | 0.00 | 0.76 | 0.75 | 95 | 1012.1 |
| 20260502233006 | 55 | 14 | 2.6 | 5.2 | 0.00 | 0.76 | 0.75 | 95 | 1012.1 |
| 20260502232803 | 55 | 50 | 2.6 | 5.2 | 0.00 | 0.76 | 0.75 | 95 | 1012.2 |
| 20260502232703 | 55 | 355 | 1.7 | 4.3 | 0.00 | 0.76 | 0.75 | 95 | 1012.2 |
| 20260502232404 | 55 | 360 | 1.7 | 4.3 | 0.00 | 0.76 | 0.75 | 95 | 1012.1 |
| 20260502232305 | 55 | 355 | 2.6 | 4.3 | 0.00 | 0.76 | 0.75 | 95 | 1012.1 |
| 20260502232204 | 55 | 360 | 2.6 | 4.3 | 0.00 | 0.76 | 0.75 | 95 | 1012.2 |
| 20260502231904 | 55 | 15 | 2.6 | 4.3 | 0.00 | 0.76 | 0.75 | 95 | 1012.0 |
| 20260502231804 | 55 | 360 | 1.7 | 4.3 | 0.00 | 0.76 | 0.75 | 95 | 1012.0 |
| 20260502231704 | 55 | 9 | 1.7 | 4.3 | 0.00 | 0.76 | 0.75 | 95 | 1012.1 |
| 20260502231505 | 55 | 349 | 1.7 | 4.3 | 0.00 | 0.76 | 0.75 | 95 | 1012.1 |
| 20260502231404 | 55 | 355 | 1.7 | 4.3 | 0.00 | 0.76 | 0.75 | 95 | 1012.1 |
| 20260502231303 | 55 | 355 | 1.7 | 4.3 | 0.00 | 0.76 | 0.75 | 95 | 1012.1 |
| 20260502231104 | 55 | 360 | 1.7 | 4.3 | 0.00 | 0.76 | 0.75 | 95 | 1012.1 |
| 20260502231006 | 55 | 9 | 1.7 | 4.3 | 0.00 | 0.76 | 0.75 | 95 | 1011.9 |
| 20260502230905 | 55 | 355 | 1.7 | 5.2 | 0.00 | 0.76 | 0.75 | 95 | 1012.0 |
| 20260502230803 | 55 | 351 | 1.7 | 5.2 | 0.00 | 0.76 | 0.75 | 95 | 1012.0 |
| 20260502230604 | 55 | 360 | 2.6 | 5.2 | 0.00 | 0.76 | 0.75 | 95 | 1012.0 |
| 20260502230506 | 55 | 355 | 2.6 | 5.2 | 0.00 | 0.76 | 0.75 | 95 | 1012.0 |
| 20260502230405 | 55 | 360 | 1.7 | 5.2 | 0.00 | 0.76 | 0.75 | 95 | 1012.0 |
| 20260502230305 | 55 | 355 | 1.7 | 5.2 | 0.00 | 0.76 | 0.75 | 95 | 1012.0 |
| 20260502230205 | 55 | 28 | 1.7 | 5.2 | 0.00 | 0.76 | 0.75 | 95 | 1012.0 |
| 20260502230104 | 55 | 13 | 1.7 | 5.2 | 0.00 | 0.76 | 0.75 | 95 | 1012.0 |
| 20260502230007 | 55 | 5 | 1.7 | 4.3 | 0.00 | 0.76 | 0.75 | 95 | 1012.0 |
| 20260502225903 | 55 | 25 | 1.7 | 4.3 | 0.00 | 0.76 | 0.75 | 95 | 1012.1 |
| 20260502225803 | 55 | 355 | 0.9 | 4.3 | 0.00 | 0.76 | 0.75 | 95 | 1012.1 |
| 20260502225703 | 55 | 350 | 1.7 | 4.3 | 0.00 | 0.76 | 0.75 | 95 | 1012.1 |
| 20260502225603 | 55 | 346 | 1.7 | 4.3 | 0.00 | 0.76 | 0.75 | 95 | 1012.2 |
| 20260502225504 | 55 | 5 | 1.7 | 4.3 | 0.00 | 0.76 | 0.75 | 95 | 1012.2 |
| 20260502225403 | 55 | 360 | 0.9 | 4.3 | 0.00 | 0.76 | 0.75 | 95 | 1012.1 |
| 20260502225304 | 55 | 48 | 1.7 | 4.3 | 0.00 | 0.76 | 0.75 | 95 | 1012.1 |
| 20260502225203 | 55 | 5 | 2.6 | 4.3 | 0.00 | 0.76 | 0.75 | 95 | 1012.1 |
| 20260502225103 | 55 | 14 | 1.7 | 4.3 | 0.00 | 0.76 | 0.75 | 95 | 1012.0 |
| 20260502225005 | 55 | 337 | 1.7 | 3.5 | 0.00 | 0.76 | 0.75 | 95 | 1012.1 |
| 20260502224903 | 55 | 355 | 1.7 | 3.5 | 0.00 | 0.76 | 0.75 | 95 | 1012.0 |
| 20260502224805 | 55 | 355 | 1.7 | 3.5 | 0.00 | 0.76 | 0.75 | 95 | 1012.0 |
| 20260502224703 | 55 | 5 | 0.9 | 3.5 | 0.00 | 0.76 | 0.75 | 95 | 1012.0 |
| 20260502224603 | 55 | 5 | 0.9 | 4.3 | 0.00 | 0.76 | 0.75 | 95 | 1012.0 |
| 20260502224505 | 55 | 5 | 1.7 | 4.3 | 0.00 | 0.76 | 0.75 | 95 | 1012.0 |
| 20260502224403 | 55 | 5 | 1.7 | 4.3 | 0.00 | 0.76 | 0.75 | 95 | 1012.0 |
| 20260502224304 | 55 | 355 | 1.7 | 4.3 | 0.00 | 0.76 | 0.75 | 95 | 1012.1 |
| 20260502224203 | 55 | 355 | 1.7 | 4.3 | 0.00 | 0.76 | 0.75 | 95 | 1012.0 |
| 20260502224103 | 55 | 5 | 1.7 | 4.3 | 0.00 | 0.76 | 0.75 | 95 | 1012.0 |
| 20260502224005 | 55 | 355 | 1.7 | 4.3 | 0.00 | 0.76 | 0.75 | 95 | 1012.0 |
| 20260502223703 | 55 | 351 | 1.7 | 3.5 | 0.00 | 0.76 | 0.75 | 95 | 1012.0 |
| 20260502223403 | 55 | 5 | 1.7 | 4.3 | 0.00 | 0.76 | 0.75 | 95 | 1011.9 |
| 20260502223303 | 55 | 5 | 1.7 | 4.3 | 0.00 | 0.76 | 0.75 | 95 | 1011.8 |
| 20260502223203 | 55 | 360 | 1.7 | 4.3 | 0.00 | 0.76 | 0.75 | 95 | 1011.8 |
| 20260502223103 | 55 | 5 | 1.7 | 4.3 | 0.00 | 0.76 | 0.75 | 95 | 1011.8 |
| 20260502223006 | 55 | 350 | 1.7 | 4.3 | 0.00 | 0.76 | 0.75 | 95 | 1011.8 |
| 20260502222904 | 55 | 81 | 1.7 | 4.3 | 0.00 | 0.76 | 0.75 | 95 | 1011.8 |
| 20260502222803 | 55 | 19 | 2.6 | 4.3 | 0.00 | 0.76 | 0.75 | 95 | 1011.8 |
| 20260502222704 | 55 | 33 | 2.6 | 4.3 | 0.00 | 0.76 | 0.75 | 95 | 1011.9 |
| 20260502222603 | 55 | 73 | 2.6 | 4.3 | 0.00 | 0.76 | 0.75 | 95 | 1011.8 |
| 20260502222506 | 55 | 25 | 2.6 | 4.3 | 0.00 | 0.76 | 0.75 | 95 | 1011.9 |
| 20260502222403 | 55 | 355 | 1.7 | 4.3 | 0.00 | 0.76 | 0.75 | 95 | 1011.8 |
| 20260502222305 | 55 | 5 | 1.7 | 7.8 | 0.00 | 0.76 | 0.75 | 95 | 1011.9 |
| 20260502222203 | 55 | 343 | 1.7 | 7.8 | 0.00 | 0.76 | 0.75 | 95 | 1011.9 |
| 20260502222104 | 55 | 348 | 1.7 | 7.8 | 0.00 | 0.76 | 0.75 | 95 | 1011.8 |
| 20260502222005 | 55 | 360 | 2.6 | 7.8 | 0.00 | 0.76 | 0.75 | 95 | 1011.8 |
| 20260502221903 | 55 | 33 | 2.6 | 7.8 | 0.00 | 0.76 | 0.75 | 95 | 1011.7 |
| 20260502221803 | 55 | 355 | 2.6 | 7.8 | 0.00 | 0.76 | 0.75 | 95 | 1011.8 |
| 20260502221704 | 55 | 355 | 2.6 | 8.7 | 0.00 | 0.76 | 0.75 | 95 | 1011.7 |
| 20260502221602 | 55 | 355 | 2.6 | 8.7 | 0.00 | 0.76 | 0.75 | 95 | 1011.7 |
| 20260502221506 | 55 | 21 | 3.5 | 8.7 | 0.00 | 0.76 | 0.75 | 95 | 1011.8 |
| 20260502221402 | 55 | 9 | 3.5 | 8.7 | 0.00 | 0.76 | 0.75 | 95 | 1011.8 |
| 20260502221303 | 55 | 43 | 2.6 | 8.7 | 0.00 | 0.76 | 0.75 | 95 | 1011.9 |
| 20260502221204 | 55 | 29 | 2.6 | 8.7 | 0.00 | 0.76 | 0.75 | 95 | 1011.9 |
| 20260502221102 | 55 | 355 | 2.6 | 8.7 | 0.00 | 0.76 | 0.75 | 95 | 1011.9 |
| 20260502221005 | 55 | 348 | 3.5 | 8.7 | 0.00 | 0.76 | 0.75 | 95 | 1011.9 |
| 20260502220902 | 55 | 22 | 3.5 | 8.7 | 0.00 | 0.76 | 0.75 | 95 | 1012.0 |
| 20260502220803 | 55 | 355 | 3.5 | 8.7 | 0.00 | 0.76 | 0.75 | 95 | 1011.9 |
| 20260502220704 | 55 | 346 | 2.6 | 5.2 | 0.00 | 0.76 | 0.75 | 95 | 1011.9 |
| 20260502220603 | 55 | 34 | 1.7 | 3.5 | 0.00 | 0.76 | 0.75 | 95 | 1012.0 |
| 20260502220505 | 55 | 355 | 1.7 | 3.5 | 0.00 | 0.76 | 0.75 | 95 | 1011.9 |
| 20260502220302 | 55 | 360 | 0.9 | 3.5 | 0.00 | 0.76 | 0.75 | 95 | 1011.9 |
| 20260502220204 | 55 | 360 | 1.7 | 5.2 | 0.00 | 0.76 | 0.75 | 95 | 1011.9 |
| 20260502215603 | 55 | 360 | 1.7 | 5.2 | 0.00 | 0.76 | 0.75 | 95 | 1011.7 |
| 20260502215505 | 55 | 355 | 2.6 | 5.2 | 0.00 | 0.76 | 0.75 | 95 | 1011.7 |